Wetterdaten: Mittwoch, 15.01.2014
Datum Zeit Temp. Aussen +5cm Feuchte Auss Luftdruck Regen Sonnenschein Regendauer UV Solar Windben
15.01.2014 00:00 4,9 C 3,9 C 93 % 1008,7 hPa 0,0 l/m 0 min 0 min 0,0 UV-I 0 W/m 2,6 km/h (1 Bft)
15.01.2014 00:02 4,9 C 3,9 C 93 % 1008,7 hPa 0,0 l/m 0 min 0 min 0,0 UV-I 0 W/m 7,7 km/h (2 Bft)
15.01.2014 00:04 4,9 C 3,9 C 93 % 1008,7 hPa 0,0 l/m 0 min 0 min 0,0 UV-I 0 W/m 0,0 km/h (0 Bft)
15.01.2014 00:06 4,9 C 3,9 C 93 % 1008,8 hPa 0,0 l/m 0 min 0 min 0,0 UV-I 0 W/m 0,0 km/h (0 Bft)
15.01.2014 00:08 4,9 C 3,9 C 93 % 1008,8 hPa 0,0 l/m 0 min 0 min 0,0 UV-I 0 W/m 0,0 km/h (0 Bft)
15.01.2014 00:10 4,9 C 3,9 C 93 % 1008,8 hPa 0,0 l/m 0 min 0 min 0,0 UV-I 0 W/m 0,0 km/h (0 Bft)
15.01.2014 00:12 4,9 C 3,9 C 93 % 1008,8 hPa 0,0 l/m 0 min 0 min 0,0 UV-I 0 W/m 0,0 km/h (0 Bft)
15.01.2014 00:14 4,9 C 3,9 C 93 % 1008,8 hPa 0,0 l/m 0 min 0 min 0,0 UV-I 0 W/m 5,1 km/h (1 Bft)
15.01.2014 00:16 4,9 C 3,9 C 93 % 1008,9 hPa 0,0 l/m 0 min 0 min 0,0 UV-I 0 W/m 5,1 km/h (1 Bft)
15.01.2014 00:18 4,9 C 3,9 C 93 % 1008,8 hPa 0,0 l/m 0 min 0 min 0,0 UV-I 0 W/m 0,0 km/h (0 Bft)
15.01.2014 00:20 4,9 C 3,9 C 93 % 1008,8 hPa 0,0 l/m 0 min 0 min 0,0 UV-I 0 W/m 0,0 km/h (0 Bft)
15.01.2014 00:22 4,9 C 3,9 C 93 % 1008,9 hPa 0,0 l/m 0 min 0 min 0,0 UV-I 0 W/m 7,7 km/h (2 Bft)
15.01.2014 00:24 4,9 C 3,9 C 93 % 1008,9 hPa 0,0 l/m 0 min 0 min 0,0 UV-I 0 W/m 2,6 km/h (1 Bft)
15.01.2014 00:26 4,9 C 3,9 C 93 % 1009,0 hPa 0,0 l/m 0 min 2 min 0,0 UV-I 0 W/m 2,6 km/h (1 Bft)
15.01.2014 00:28 4,9 C 3,9 C 93 % 1009,0 hPa 0,0 l/m 0 min 2 min 0,0 UV-I 0 W/m 5,1 km/h (1 Bft)
15.01.2014 00:30 4,9 C 3,9 C 93 % 1009,0 hPa 0,0 l/m 0 min 2 min 0,0 UV-I 0 W/m 0,0 km/h (0 Bft)
15.01.2014 00:32 4,9 C 3,3 C 93 % 1008,9 hPa 0,0 l/m 0 min 2 min 0,0 UV-I 0 W/m 0,0 km/h (0 Bft)
15.01.2014 00:34 4,9 C 3,3 C 93 % 1009,0 hPa 0,0 l/m 0 min 2 min 0,0 UV-I 0 W/m 5,1 km/h (1 Bft)
15.01.2014 00:36 4,9 C 3,3 C 93 % 1008,8 hPa 0,0 l/m 0 min 0 min 0,0 UV-I 0 W/m 2,6 km/h (1 Bft)
15.01.2014 00:38 4,9 C 3,3 C 93 % 1008,8 hPa 0,0 l/m 0 min 0 min 0,0 UV-I 0 W/m 0,0 km/h (0 Bft)
15.01.2014 00:40 4,9 C 3,3 C 93 % 1008,8 hPa 0,0 l/m 0 min 2 min 0,0 UV-I 0 W/m 5,1 km/h (1 Bft)
15.01.2014 00:42 4,9 C 3,3 C 93 % 1008,8 hPa 0,0 l/m 0 min 0 min 0,0 UV-I 0 W/m 0,0 km/h (0 Bft)
15.01.2014 00:44 4,9 C 3,3 C 93 % 1008,8 hPa 0,0 l/m 0 min 0 min 0,0 UV-I 0 W/m 0,0 km/h (0 Bft)
15.01.2014 00:46 4,9 C 3,3 C 93 % 1008,8 hPa 0,0 l/m 0 min 0 min 0,0 UV-I 0 W/m 0,0 km/h (0 Bft)
15.01.2014 00:48 4,8 C 3,3 C 93 % 1008,8 hPa 0,0 l/m 0 min 2 min 0,0 UV-I 0 W/m 5,1 km/h (1 Bft)
15.01.2014 00:50 4,8 C 3,3 C 93 % 1008,9 hPa 0,0 l/m 0 min 2 min 0,0 UV-I 0 W/m 10,3 km/h (2 Bft)
15.01.2014 00:52 4,8 C 3,3 C 93 % 1008,9 hPa 0,0 l/m 0 min 2 min 0,0 UV-I 0 W/m 10,3 km/h (2 Bft)
15.01.2014 00:54 4,8 C 3,3 C 93 % 1008,9 hPa 0,0 l/m 0 min 2 min 0,0 UV-I 0 W/m 0,0 km/h (0 Bft)
15.01.2014 00:56 4,8 C 3,3 C 93 % 1009,0 hPa 0,0 l/m 0 min 0 min 0,0 UV-I 0 W/m 0,0 km/h (0 Bft)
15.01.2014 00:58 4,8 C 3,3 C 93 % 1009,0 hPa 0,0 l/m 0 min 0 min 0,0 UV-I 0 W/m 7,7 km/h (2 Bft)
15.01.2014 01:00 4,8 C 3,3 C 93 % 1009,0 hPa 0,0 l/m 0 min 0 min 0,0 UV-I 0 W/m 0,0 km/h (0 Bft)
15.01.2014 01:02 4,8 C 3,3 C 93 % 1009,0 hPa 0,0 l/m 0 min 0 min 0,0 UV-I 0 W/m 5,1 km/h (1 Bft)
15.01.2014 01:04 4,8 C 3,3 C 93 % 1009,1 hPa 0,0 l/m 0 min 0 min 0,0 UV-I 0 W/m 5,1 km/h (1 Bft)
15.01.2014 01:06 4,8 C 3,3 C 93 % 1009,1 hPa 0,0 l/m 0 min 0 min 0,0 UV-I 0 W/m 0,0 km/h (0 Bft)
15.01.2014 01:08 4,7 C 3,3 C 93 % 1009,0 hPa 0,0 l/m 0 min 0 min 0,0 UV-I 0 W/m 0,0 km/h (0 Bft)
15.01.2014 01:10 4,7 C 3,3 C 93 % 1009,1 hPa 0,0 l/m 0 min 0 min 0,0 UV-I 0 W/m 2,6 km/h (1 Bft)
15.01.2014 01:12 4,7 C 3,3 C 93 % 1009,1 hPa 0,0 l/m 0 min 0 min 0,0 UV-I 0 W/m 0,0 km/h (0 Bft)
15.01.2014 01:14 4,7 C 3,3 C 93 % 1009,0 hPa 0,0 l/m 0 min 0 min 0,0 UV-I 0 W/m 0,0 km/h (0 Bft)
15.01.2014 01:16 4,7 C 3,3 C 93 % 1009,0 hPa 0,0 l/m 0 min 0 min 0,0 UV-I 0 W/m 0,0 km/h (0 Bft)
15.01.2014 01:18 4,7 C 3,3 C 93 % 1009,0 hPa 0,0 l/m 0 min 0 min 0,0 UV-I 0 W/m 7,7 km/h (2 Bft)
15.01.2014 01:20 4,7 C 3,3 C 93 % 1009,1 hPa 0,0 l/m 0 min 0 min 0,0 UV-I 0 W/m 2,6 km/h (1 Bft)
15.01.2014 01:22 4,7 C 3,3 C 93 % 1009,1 hPa 0,0 l/m 0 min 0 min 0,0 UV-I 0 W/m 7,7 km/h (2 Bft)
15.01.2014 01:24 4,7 C 3,3 C 93 % 1009,1 hPa 0,0 l/m 0 min 0 min 0,0 UV-I 0 W/m 18,0 km/h (3 Bft)
15.01.2014 01:26 4,7 C 3,3 C 93 % 1009,1 hPa 0,0 l/m 0 min 0 min 0,0 UV-I 0 W/m 2,6 km/h (1 Bft)
15.01.2014 01:28 4,7 C 3,3 C 93 % 1009,1 hPa 0,0 l/m 0 min 0 min 0,0 UV-I 0 W/m 0,0 km/h (0 Bft)
15.01.2014 01:30 4,7 C 2,8 C 93 % 1009,1 hPa 0,0 l/m 0 min 0 min 0,0 UV-I 0 W/m 7,7 km/h (2 Bft)
15.01.2014 01:32 4,7 C 2,8 C 93 % 1009,1 hPa 0,0 l/m 0 min 0 min 0,0 UV-I 0 W/m 0,0 km/h (0 Bft)
15.01.2014 01:34 4,7 C 2,8 C 93 % 1009,0 hPa 0,0 l/m 0 min 0 min 0,0 UV-I 0 W/m 0,0 km/h (0 Bft)
15.01.2014 01:36 4,6 C 2,8 C 93 % 1009,1 hPa 0,0 l/m 0 min 0 min 0,0 UV-I 0 W/m 0,0 km/h (0 Bft)
15.01.2014 01:38 4,6 C 2,8 C 93 % 1009,0 hPa 0,0 l/m 0 min 0 min 0,0 UV-I 0 W/m 0,0 km/h (0 Bft)
15.01.2014 01:40 4,6 C 2,8 C 93 % 1009,1 hPa 0,0 l/m 0 min 0 min 0,0 UV-I 0 W/m 0,0 km/h (0 Bft)
15.01.2014 01:42 4,6 C 2,8 C 93 % 1009,0 hPa 0,0 l/m 0 min 0 min 0,0 UV-I 0 W/m 0,0 km/h (0 Bft)
15.01.2014 01:44 4,6 C 2,2 C 93 % 1009,1 hPa 0,0 l/m 0 min 0 min 0,0 UV-I 0 W/m 5,1 km/h (1 Bft)
15.01.2014 01:46 4,5 C 2,2 C 93 % 1009,1 hPa 0,0 l/m 0 min 0 min 0,0 UV-I 0 W/m 0,0 km/h (0 Bft)
15.01.2014 01:48 4,5 C 2,2 C 93 % 1009,1 hPa 0,0 l/m 0 min 0 min 0,0 UV-I 0 W/m 0,0 km/h (0 Bft)
15.01.2014 01:50 4,4 C 2,2 C 93 % 1009,0 hPa 0,0 l/m 0 min 0 min 0,0 UV-I 0 W/m 0,0 km/h (0 Bft)
15.01.2014 01:52 4,4 C 2,2 C 93 % 1009,1 hPa 0,0 l/m 0 min 0 min 0,0 UV-I 0 W/m 0,0 km/h (0 Bft)
15.01.2014 01:54 4,4 C 2,2 C 93 % 1009,1 hPa 0,0 l/m 0 min 0 min 0,0 UV-I 0 W/m 0,0 km/h (0 Bft)
15.01.2014 01:56 4,4 C 2,2 C 93 % 1009,1 hPa 0,0 l/m 0 min 0 min 0,0 UV-I 0 W/m 0,0 km/h (0 Bft)
15.01.2014 01:58 4,4 C 2,2 C 93 % 1009,1 hPa 0,0 l/m 0 min 0 min 0,0 UV-I 0 W/m 0,0 km/h (0 Bft)
15.01.2014 02:00 4,3 C 2,2 C 93 % 1009,2 hPa 0,0 l/m 0 min 0 min 0,0 UV-I 0 W/m 0,0 km/h (0 Bft)
15.01.2014 02:02 4,3 C 2,2 C 93 % 1009,2 hPa 0,0 l/m 0 min 0 min 0,0 UV-I 0 W/m 0,0 km/h (0 Bft)
15.01.2014 02:04 4,3 C 2,2 C 93 % 1009,2 hPa 0,0 l/m 0 min 0 min 0,0 UV-I 0 W/m 2,6 km/h (1 Bft)
15.01.2014 02:06 4,2 C 2,2 C 92 % 1009,2 hPa 0,0 l/m 0 min 0 min 0,0 UV-I 0 W/m 5,1 km/h (1 Bft)
15.01.2014 02:08 4,2 C 2,2 C 92 % 1009,3 hPa 0,0 l/m 0 min 0 min 0,0 UV-I 0 W/m 0,0 km/h (0 Bft)
15.01.2014 02:10 4,2 C 2,2 C 92 % 1009,3 hPa 0,0 l/m 0 min 0 min 0,0 UV-I 0 W/m 0,0 km/h (0 Bft)
15.01.2014 02:12 4,2 C 2,2 C 93 % 1009,2 hPa 0,0 l/m 0 min 0 min 0,0 UV-I 0 W/m 0,0 km/h (0 Bft)
15.01.2014 02:14 4,1 C 2,2 C 93 % 1009,3 hPa 0,0 l/m 0 min 0 min 0,0 UV-I 0 W/m 0,0 km/h (0 Bft)
15.01.2014 02:16 4,1 C 2,2 C 93 % 1009,3 hPa 0,0 l/m 0 min 0 min 0,0 UV-I 0 W/m 0,0 km/h (0 Bft)
15.01.2014 02:18 4,1 C 2,2 C 93 % 1009,2 hPa 0,0 l/m 0 min 0 min 0,0 UV-I 0 W/m 0,0 km/h (0 Bft)
15.01.2014 02:20 4,1 C 2,2 C 93 % 1009,3 hPa 0,0 l/m 0 min 0 min 0,0 UV-I 0 W/m 0,0 km/h (0 Bft)
15.01.2014 02:22 4,1 C 2,2 C 93 % 1009,4 hPa 0,0 l/m 0 min 0 min 0,0 UV-I 0 W/m 0,0 km/h (0 Bft)
15.01.2014 02:24 4,1 C 2,2 C 93 % 1009,4 hPa 0,0 l/m 0 min 0 min 0,0 UV-I 0 W/m 0,0 km/h (0 Bft)
15.01.2014 02:26 4,0 C 2,2 C 93 % 1009,4 hPa 0,0 l/m 0 min 0 min 0,0 UV-I 0 W/m 0,0 km/h (0 Bft)
15.01.2014 02:28 4,0 C 2,2 C 93 % 1009,5 hPa 0,0 l/m 0 min 0 min 0,0 UV-I 0 W/m 2,6 km/h (1 Bft)
15.01.2014 02:30 4,0 C 2,2 C 93 % 1009,5 hPa 0,0 l/m 0 min 0 min 0,0 UV-I 0 W/m 0,0 km/h (0 Bft)
15.01.2014 02:32 3,9 C 2,8 C 92 % 1009,5 hPa 0,0 l/m 0 min 0 min 0,0 UV-I 0 W/m 5,1 km/h (1 Bft)
15.01.2014 02:34 3,9 C 2,8 C 92 % 1009,5 hPa 0,0 l/m 0 min 0 min 0,0 UV-I 0 W/m 0,0 km/h (0 Bft)
15.01.2014 02:36 3,9 C 2,8 C 92 % 1009,5 hPa 0,0 l/m 0 min 0 min 0,0 UV-I 0 W/m 0,0 km/h (0 Bft)
15.01.2014 02:38 3,9 C 2,8 C 92 % 1009,5 hPa 0,0 l/m 0 min 0 min 0,0 UV-I 0 W/m 0,0 km/h (0 Bft)
15.01.2014 02:40 3,9 C 2,8 C 92 % 1009,5 hPa 0,0 l/m 0 min 0 min 0,0 UV-I 0 W/m 0,0 km/h (0 Bft)
15.01.2014 02:42 3,9 C 2,8 C 92 % 1009,5 hPa 0,0 l/m 0 min 0 min 0,0 UV-I 0 W/m 0,0 km/h (0 Bft)
15.01.2014 02:44 3,9 C 2,8 C 92 % 1009,6 hPa 0,0 l/m 0 min 0 min 0,0 UV-I 0 W/m 2,6 km/h (1 Bft)
15.01.2014 02:46 3,9 C 2,8 C 93 % 1009,5 hPa 0,0 l/m 0 min 0 min 0,0 UV-I 0 W/m 10,3 km/h (2 Bft)
15.01.2014 02:48 3,9 C 2,8 C 93 % 1009,6 hPa 0,0 l/m 0 min 0 min 0,0 UV-I 0 W/m 0,0 km/h (0 Bft)
15.01.2014 02:50 3,8 C 2,8 C 93 % 1009,7 hPa 0,0 l/m 0 min 0 min 0,0 UV-I 0 W/m 2,6 km/h (1 Bft)
15.01.2014 02:52 3,9 C 2,8 C 93 % 1009,6 hPa 0,0 l/m 0 min 0 min 0,0 UV-I 0 W/m 0,0 km/h (0 Bft)
15.01.2014 02:54 3,9 C 2,8 C 93 % 1009,6 hPa 0,0 l/m 0 min 0 min 0,0 UV-I 0 W/m 12,9 km/h (3 Bft)
15.01.2014 02:56 3,8 C 2,8 C 93 % 1009,5 hPa 0,0 l/m 0 min 0 min 0,0 UV-I 0 W/m 0,0 km/h (0 Bft)
15.01.2014 02:58 3,9 C 2,8 C 93 % 1009,6 hPa 0,0 l/m 0 min 0 min 0,0 UV-I 0 W/m 0,0 km/h (0 Bft)
15.01.2014 03:00 3,9 C 2,8 C 93 % 1009,7 hPa 0,0 l/m 0 min 0 min 0,0 UV-I 0 W/m 2,6 km/h (1 Bft)
15.01.2014 03:02 3,9 C 2,8 C 93 % 1009,7 hPa 0,0 l/m 0 min 0 min 0,0 UV-I 0 W/m 0,0 km/h (0 Bft)
15.01.2014 03:04 3,9 C 2,8 C 93 % 1009,7 hPa 0,0 l/m 0 min 0 min 0,0 UV-I 0 W/m 2,6 km/h (1 Bft)
15.01.2014 03:06 3,9 C 2,8 C 92 % 1009,7 hPa 0,0 l/m 0 min 0 min 0,0 UV-I 0 W/m 12,9 km/h (3 Bft)
15.01.2014 03:08 3,9 C 2,8 C 92 % 1009,6 hPa 0,0 l/m 0 min 0 min 0,0 UV-I 0 W/m 10,3 km/h (2 Bft)
15.01.2014 03:10 3,9 C 2,8 C 92 % 1009,6 hPa 0,0 l/m 0 min 0 min 0,0 UV-I 0 W/m 0,0 km/h (0 Bft)
15.01.2014 03:12 3,9 C 2,8 C 92 % 1009,6 hPa 0,0 l/m 0 min 0 min 0,0 UV-I 0 W/m 0,0 km/h (0 Bft)
15.01.2014 03:14 3,9 C 2,8 C 92 % 1009,7 hPa 0,0 l/m 0 min 0 min 0,0 UV-I 0 W/m 5,1 km/h (1 Bft)
15.01.2014 03:16 3,9 C 2,8 C 92 % 1009,7 hPa 0,0 l/m 0 min 0 min 0,0 UV-I 0 W/m 0,0 km/h (0 Bft)
15.01.2014 03:18 3,9 C 2,8 C 92 % 1009,7 hPa 0,0 l/m 0 min 0 min 0,0 UV-I 0 W/m 2,6 km/h (1 Bft)
15.01.2014 03:20 3,9 C 2,8 C 92 % 1009,7 hPa 0,0 l/m 0 min 0 min 0,0 UV-I 0 W/m 2,6 km/h (1 Bft)
15.01.2014 03:22 3,9 C 2,8 C 92 % 1009,7 hPa 0,0 l/m 0 min 0 min 0,0 UV-I 0 W/m 7,7 km/h (2 Bft)
15.01.2014 03:24 3,9 C 2,8 C 92 % 1009,7 hPa 0,0 l/m 0 min 0 min 0,0 UV-I 0 W/m 2,6 km/h (1 Bft)
15.01.2014 03:26 3,9 C 2,8 C 92 % 1009,8 hPa 0,0 l/m 0 min 0 min 0,0 UV-I 0 W/m 5,1 km/h (1 Bft)
15.01.2014 03:28 3,9 C 2,8 C 92 % 1009,8 hPa 0,0 l/m 0 min 0 min 0,0 UV-I 0 W/m 0,0 km/h (0 Bft)
15.01.2014 03:30 3,9 C 2,8 C 92 % 1009,8 hPa 0,0 l/m 0 min 0 min 0,0 UV-I 0 W/m 0,0 km/h (0 Bft)
15.01.2014 03:32 3,9 C 2,8 C 92 % 1009,7 hPa 0,0 l/m 0 min 0 min 0,0 UV-I 0 W/m 0,0 km/h (0 Bft)
15.01.2014 03:34 4,0 C 2,8 C 92 % 1009,7 hPa 0,0 l/m 0 min 0 min 0,0 UV-I 0 W/m 5,1 km/h (1 Bft)
15.01.2014 03:36 4,0 C 2,8 C 92 % 1009,7 hPa 0,0 l/m 0 min 0 min 0,0 UV-I 0 W/m 5,1 km/h (1 Bft)
15.01.2014 03:38 3,9 C 2,8 C 92 % 1009,7 hPa 0,0 l/m 0 min 0 min 0,0 UV-I 0 W/m 0,0 km/h (0 Bft)
15.01.2014 03:40 4,0 C 2,8 C 92 % 1009,7 hPa 0,0 l/m 0 min 0 min 0,0 UV-I 0 W/m 0,0 km/h (0 Bft)
15.01.2014 03:42 4,0 C 2,8 C 92 % 1009,8 hPa 0,0 l/m 0 min 0 min 0,0 UV-I 0 W/m 0,0 km/h (0 Bft)
15.01.2014 03:44 4,0 C 2,8 C 92 % 1009,8 hPa 0,0 l/m 0 min 0 min 0,0 UV-I 0 W/m 0,0 km/h (0 Bft)
15.01.2014 03:46 4,0 C 2,8 C 92 % 1009,8 hPa 0,0 l/m 0 min 0 min 0,0 UV-I 0 W/m 0,0 km/h (0 Bft)
15.01.2014 03:48 4,0 C 2,8 C 92 % 1009,8 hPa 0,0 l/m 0 min 0 min 0,0 UV-I 0 W/m 7,7 km/h (2 Bft)
15.01.2014 03:50 4,0 C 2,8 C 92 % 1009,8 hPa 0,0 l/m 0 min 0 min 0,0 UV-I 0 W/m 7,7 km/h (2 Bft)
15.01.2014 03:52 4,0 C 2,8 C 92 % 1009,8 hPa 0,0 l/m 0 min 0 min 0,0 UV-I 0 W/m 0,0 km/h (0 Bft)
15.01.2014 03:54 4,0 C 2,8 C 91 % 1009,7 hPa 0,0 l/m 0 min 0 min 0,0 UV-I 0 W/m 0,0 km/h (0 Bft)
15.01.2014 03:56 4,0 C 2,8 C 91 % 1009,7 hPa 0,0 l/m 0 min 0 min 0,0 UV-I 0 W/m 7,7 km/h (2 Bft)
15.01.2014 03:58 4,0 C 2,8 C 91 % 1009,7 hPa 0,0 l/m 0 min 0 min 0,0 UV-I 0 W/m 0,0 km/h (0 Bft)
15.01.2014 04:00 4,0 C 2,8 C 91 % 1009,7 hPa 0,0 l/m 0 min 0 min 0,0 UV-I 0 W/m 0,0 km/h (0 Bft)
15.01.2014 04:05 4,0 C 2,8 C 91 % 1009,8 hPa 0,0 l/m 0 min 0 min 0,0 UV-I 0 W/m 2,6 km/h (1 Bft)
15.01.2014 04:06 4,0 C 2,8 C 91 % 1009,7 hPa 0,0 l/m 0 min 0 min 0,0 UV-I 0 W/m 7,7 km/h (2 Bft)
15.01.2014 04:08 4,0 C 2,8 C 91 % 1009,7 hPa 0,0 l/m 0 min 0 min 0,0 UV-I 0 W/m 0,0 km/h (0 Bft)
15.01.2014 04:10 4,0 C 2,8 C 91 % 1009,7 hPa 0,0 l/m 0 min 0 min 0,0 UV-I 0 W/m 0,0 km/h (0 Bft)
15.01.2014 04:12 4,0 C 2,8 C 91 % 1009,6 hPa 0,0 l/m 0 min 0 min 0,0 UV-I 0 W/m 0,0 km/h (0 Bft)
15.01.2014 04:14 4,0 C 2,8 C 91 % 1009,5 hPa 0,0 l/m 0 min 0 min 0,0 UV-I 0 W/m 7,7 km/h (2 Bft)
15.01.2014 04:16 4,0 C 2,8 C 91 % 1009,6 hPa 0,0 l/m 0 min 0 min 0,0 UV-I 0 W/m 2,6 km/h (1 Bft)
15.01.2014 04:18 4,0 C 2,8 C 91 % 1009,7 hPa 0,0 l/m 0 min 0 min 0,0 UV-I 0 W/m 0,0 km/h (0 Bft)
15.01.2014 04:20 3,9 C 2,8 C 91 % 1009,7 hPa 0,0 l/m 0 min 0 min 0,0 UV-I 0 W/m 7,7 km/h (2 Bft)
15.01.2014 04:22 3,9 C 2,8 C 91 % 1009,6 hPa 0,0 l/m 0 min 0 min 0,0 UV-I 0 W/m 0,0 km/h (0 Bft)
15.01.2014 04:24 3,9 C 2,8 C 91 % 1009,5 hPa 0,0 l/m 0 min 0 min 0,0 UV-I 0 W/m 7,7 km/h (2 Bft)
15.01.2014 04:26 3,9 C 2,8 C 91 % 1009,5 hPa 0,0 l/m 0 min 0 min 0,0 UV-I 0 W/m 0,0 km/h (0 Bft)
15.01.2014 04:28 3,9 C 2,8 C 91 % 1009,5 hPa 0,0 l/m 0 min 0 min 0,0 UV-I 0 W/m 10,3 km/h (2 Bft)
15.01.2014 04:30 3,9 C 2,8 C 91 % 1009,6 hPa 0,0 l/m 0 min 0 min 0,0 UV-I 0 W/m 7,7 km/h (2 Bft)
15.01.2014 04:32 3,9 C 2,8 C 91 % 1009,7 hPa 0,0 l/m 0 min 0 min 0,0 UV-I 0 W/m 5,1 km/h (1 Bft)
15.01.2014 04:34 3,9 C 2,2 C 91 % 1009,6 hPa 0,0 l/m 0 min 0 min 0,0 UV-I 0 W/m 0,0 km/h (0 Bft)
15.01.2014 04:36 3,9 C 2,2 C 91 % 1009,6 hPa 0,0 l/m 0 min 0 min 0,0 UV-I 0 W/m 7,7 km/h (2 Bft)
15.01.2014 04:38 3,9 C 2,2 C 91 % 1009,6 hPa 0,0 l/m 0 min 0 min 0,0 UV-I 0 W/m 0,0 km/h (0 Bft)
15.01.2014 04:40 3,9 C 2,2 C 91 % 1009,7 hPa 0,0 l/m 0 min 0 min 0,0 UV-I 0 W/m 0,0 km/h (0 Bft)
15.01.2014 04:42 3,8 C 2,2 C 91 % 1009,7 hPa 0,0 l/m 0 min 0 min 0,0 UV-I 0 W/m 2,6 km/h (1 Bft)
15.01.2014 04:44 3,8 C 2,2 C 90 % 1009,6 hPa 0,0 l/m 0 min 0 min 0,0 UV-I 0 W/m 0,0 km/h (0 Bft)
15.01.2014 04:46 3,8 C 2,2 C 90 % 1009,5 hPa 0,0 l/m 0 min 0 min 0,0 UV-I 0 W/m 2,6 km/h (1 Bft)
15.01.2014 04:48 3,8 C 1,7 C 90 % 1009,6 hPa 0,0 l/m 0 min 0 min 0,0 UV-I 0 W/m 7,7 km/h (2 Bft)
15.01.2014 04:50 3,7 C 1,7 C 90 % 1009,5 hPa 0,0 l/m 0 min 0 min 0,0 UV-I 0 W/m 7,7 km/h (2 Bft)
15.01.2014 04:52 3,7 C 1,7 C 90 % 1009,6 hPa 0,0 l/m 0 min 0 min 0,0 UV-I 0 W/m 0,0 km/h (0 Bft)
15.01.2014 04:54 3,7 C 1,7 C 90 % 1009,6 hPa 0,0 l/m 0 min 0 min 0,0 UV-I 0 W/m 0,0 km/h (0 Bft)
15.01.2014 04:56 3,7 C 1,7 C 90 % 1009,5 hPa 0,0 l/m 0 min 0 min 0,0 UV-I 0 W/m 0,0 km/h (0 Bft)
15.01.2014 04:58 3,7 C 1,7 C 90 % 1009,5 hPa 0,0 l/m 0 min 0 min 0,0 UV-I 0 W/m 0,0 km/h (0 Bft)
15.01.2014 05:00 3,6 C 1,7 C 90 % 1009,6 hPa 0,0 l/m 0 min 0 min 0,0 UV-I 0 W/m 0,0 km/h (0 Bft)
15.01.2014 05:02 3,6 C 1,7 C 91 % 1009,6 hPa 0,0 l/m 0 min 0 min 0,0 UV-I 0 W/m 2,6 km/h (1 Bft)
15.01.2014 05:04 3,6 C 1,7 C 91 % 1009,5 hPa 0,0 l/m 0 min 0 min 0,0 UV-I 0 W/m 5,1 km/h (1 Bft)
15.01.2014 05:06 3,5 C 1,7 C 91 % 1009,5 hPa 0,0 l/m 0 min 0 min 0,0 UV-I 0 W/m 0,0 km/h (0 Bft)
15.01.2014 05:08 3,5 C 1,7 C 91 % 1009,5 hPa 0,0 l/m 0 min 0 min 0,0 UV-I 0 W/m 0,0 km/h (0 Bft)
15.01.2014 05:10 3,4 C 1,7 C 91 % 1009,5 hPa 0,0 l/m 0 min 0 min 0,0 UV-I 0 W/m 0,0 km/h (0 Bft)
15.01.2014 05:12 3,4 C 1,7 C 91 % 1009,5 hPa 0,0 l/m 0 min 0 min 0,0 UV-I 0 W/m 7,7 km/h (2 Bft)
15.01.2014 05:14 3,4 C 1,7 C 91 % 1009,5 hPa 0,0 l/m 0 min 0 min 0,0 UV-I 0 W/m 0,0 km/h (0 Bft)
15.01.2014 05:16 3,4 C 1,7 C 91 % 1009,5 hPa 0,0 l/m 0 min 0 min 0,0 UV-I 0 W/m 0,0 km/h (0 Bft)
15.01.2014 05:18 3,4 C 1,7 C 91 % 1009,5 hPa 0,0 l/m 0 min 0 min 0,0 UV-I 0 W/m 2,6 km/h (1 Bft)
15.01.2014 05:20 3,3 C 1,7 C 91 % 1009,4 hPa 0,0 l/m 0 min 0 min 0,0 UV-I 0 W/m 0,0 km/h (0 Bft)
15.01.2014 05:22 3,3 C 1,1 C 91 % 1009,4 hPa 0,0 l/m 0 min 0 min 0,0 UV-I 0 W/m 5,1 km/h (1 Bft)
15.01.2014 05:24 3,3 C 1,1 C 91 % 1009,3 hPa 0,0 l/m 0 min 0 min 0,0 UV-I 0 W/m 0,0 km/h (0 Bft)
15.01.2014 05:26 3,3 C 1,1 C 91 % 1009,4 hPa 0,0 l/m 0 min 0 min 0,0 UV-I 0 W/m 2,6 km/h (1 Bft)
15.01.2014 05:28 3,2 C 1,1 C 91 % 1009,3 hPa 0,0 l/m 0 min 0 min 0,0 UV-I 0 W/m 5,1 km/h (1 Bft)
15.01.2014 05:30 3,2 C 1,1 C 91 % 1009,3 hPa 0,0 l/m 0 min 0 min 0,0 UV-I 0 W/m 5,1 km/h (1 Bft)
15.01.2014 05:32 3,2 C 1,1 C 91 % 1009,3 hPa 0,0 l/m 0 min 0 min 0,0 UV-I 0 W/m 0,0 km/h (0 Bft)
15.01.2014 05:34 3,2 C 1,1 C 91 % 1009,2 hPa 0,0 l/m 0 min 0 min 0,0 UV-I 0 W/m 0,0 km/h (0 Bft)
15.01.2014 05:36 3,2 C 1,1 C 91 % 1009,2 hPa 0,0 l/m 0 min 0 min 0,0 UV-I 0 W/m 5,1 km/h (1 Bft)
15.01.2014 05:38 3,1 C 1,1 C 91 % 1009,3 hPa 0,0 l/m 0 min 0 min 0,0 UV-I 0 W/m 0,0 km/h (0 Bft)
15.01.2014 05:40 3,1 C 1,1 C 91 % 1009,2 hPa 0,0 l/m 0 min 0 min 0,0 UV-I 0 W/m 7,7 km/h (2 Bft)
15.01.2014 05:42 3,1 C 1,1 C 91 % 1009,2 hPa 0,0 l/m 0 min 0 min 0,0 UV-I 0 W/m 0,0 km/h (0 Bft)
15.01.2014 05:44 3,1 C 1,1 C 91 % 1009,1 hPa 0,0 l/m 0 min 0 min 0,0 UV-I 0 W/m 0,0 km/h (0 Bft)
15.01.2014 05:46 3,0 C 1,1 C 91 % 1009,2 hPa 0,0 l/m 0 min 0 min 0,0 UV-I 0 W/m 0,0 km/h (0 Bft)
15.01.2014 05:48 3,0 C 1,1 C 91 % 1009,3 hPa 0,0 l/m 0 min 0 min 0,0 UV-I 0 W/m 7,7 km/h (2 Bft)
15.01.2014 05:50 2,9 C 1,1 C 91 % 1009,3 hPa 0,0 l/m 0 min 0 min 0,0 UV-I 0 W/m 5,1 km/h (1 Bft)
15.01.2014 05:52 2,9 C 1,1 C 91 % 1009,2 hPa 0,0 l/m 0 min 0 min 0,0 UV-I 0 W/m 0,0 km/h (0 Bft)
15.01.2014 05:54 2,9 C 1,1 C 91 % 1009,1 hPa 0,0 l/m 0 min 0 min 0,0 UV-I 0 W/m 2,6 km/h (1 Bft)
15.01.2014 05:56 2,9 C 1,1 C 91 % 1009,1 hPa 0,0 l/m 0 min 0 min 0,0 UV-I 0 W/m 2,6 km/h (1 Bft)
15.01.2014 05:58 2,9 C 0,6 C 91 % 1009,1 hPa 0,0 l/m 0 min 0 min 0,0 UV-I 0 W/m 5,1 km/h (1 Bft)
15.01.2014 06:00 2,8 C 0,6 C 91 % 1009,1 hPa 0,0 l/m 0 min 0 min 0,0 UV-I 0 W/m 2,6 km/h (1 Bft)
15.01.2014 06:02 2,8 C 0,6 C 91 % 1009,1 hPa 0,0 l/m 0 min 0 min 0,0 UV-I 0 W/m 5,1 km/h (1 Bft)
15.01.2014 06:04 2,8 C 0,6 C 91 % 1009,0 hPa 0,0 l/m 0 min 0 min 0,0 UV-I 0 W/m 2,6 km/h (1 Bft)
15.01.2014 06:06 2,8 C 0,6 C 92 % 1009,1 hPa 0,0 l/m 0 min 0 min 0,0 UV-I 0 W/m 2,6 km/h (1 Bft)
15.01.2014 06:08 2,7 C 0,6 C 92 % 1009,1 hPa 0,0 l/m 0 min 0 min 0,0 UV-I 0 W/m 0,0 km/h (0 Bft)
15.01.2014 06:10 2,7 C 0,6 C 92 % 1009,0 hPa 0,0 l/m 0 min 0 min 0,0 UV-I 0 W/m 10,3 km/h (2 Bft)
15.01.2014 06:12 2,7 C 0,6 C 91 % 1009,0 hPa 0,0 l/m 0 min 0 min 0,0 UV-I 0 W/m 5,1 km/h (1 Bft)
15.01.2014 06:14 2,7 C 0,6 C 91 % 1009,0 hPa 0,0 l/m 0 min 0 min 0,0 UV-I 0 W/m 5,1 km/h (1 Bft)
15.01.2014 06:16 2,6 C 0,6 C 92 % 1008,9 hPa 0,0 l/m 0 min 0 min 0,0 UV-I 0 W/m 10,3 km/h (2 Bft)
15.01.2014 06:18 2,6 C 0,6 C 92 % 1008,9 hPa 0,0 l/m 0 min 0 min 0,0 UV-I 0 W/m 2,6 km/h (1 Bft)
15.01.2014 06:20 2,6 C 0,6 C 92 % 1008,9 hPa 0,0 l/m 0 min 0 min 0,0 UV-I 0 W/m 2,6 km/h (1 Bft)
15.01.2014 06:22 2,5 C 0,6 C 92 % 1008,9 hPa 0,0 l/m 0 min 0 min 0,0 UV-I 0 W/m 2,6 km/h (1 Bft)
15.01.2014 06:24 2,5 C 0,6 C 92 % 1008,9 hPa 0,0 l/m 0 min 0 min 0,0 UV-I 0 W/m 5,1 km/h (1 Bft)
15.01.2014 06:26 2,4 C 0,6 C 92 % 1008,9 hPa 0,0 l/m 0 min 0 min 0,0 UV-I 0 W/m 7,7 km/h (2 Bft)
15.01.2014 06:28 2,4 C 0,0 C 92 % 1008,9 hPa 0,0 l/m 0 min 0 min 0,0 UV-I 0 W/m 2,6 km/h (1 Bft)
15.01.2014 06:30 2,4 C 0,0 C 92 % 1008,9 hPa 0,0 l/m 0 min 0 min 0,0 UV-I 0 W/m 2,6 km/h (1 Bft)
15.01.2014 06:32 2,4 C 0,0 C 92 % 1008,9 hPa 0,0 l/m 0 min 0 min 0,0 UV-I 0 W/m 5,1 km/h (1 Bft)
15.01.2014 06:34 2,3 C 0,0 C 92 % 1009,0 hPa 0,0 l/m 0 min 0 min 0,0 UV-I 0 W/m 0,0 km/h (0 Bft)
15.01.2014 06:36 2,3 C 0,0 C 92 % 1008,9 hPa 0,0 l/m 0 min 0 min 0,0 UV-I 0 W/m 7,7 km/h (2 Bft)
15.01.2014 06:38 2,3 C 0,0 C 92 % 1008,9 hPa 0,0 l/m 0 min 0 min 0,0 UV-I 0 W/m 2,6 km/h (1 Bft)
15.01.2014 06:40 2,3 C 0,0 C 92 % 1008,9 hPa 0,0 l/m 0 min 0 min 0,0 UV-I 0 W/m 5,1 km/h (1 Bft)
15.01.2014 06:42 2,2 C 0,0 C 92 % 1008,9 hPa 0,0 l/m 0 min 0 min 0,0 UV-I 0 W/m 0,0 km/h (0 Bft)
15.01.2014 06:44 2,2 C 0,0 C 92 % 1008,8 hPa 0,0 l/m 0 min 0 min 0,0 UV-I 0 W/m 7,7 km/h (2 Bft)
15.01.2014 06:46 2,2 C 0,0 C 92 % 1008,9 hPa 0,0 l/m 0 min 0 min 0,0 UV-I 0 W/m 0,0 km/h (0 Bft)
15.01.2014 06:48 2,2 C 0,0 C 92 % 1008,8 hPa 0,0 l/m 0 min 0 min 0,0 UV-I 0 W/m 5,1 km/h (1 Bft)
15.01.2014 06:50 2,1 C 0,0 C 92 % 1008,8 hPa 0,0 l/m 0 min 0 min 0,0 UV-I 0 W/m 7,7 km/h (2 Bft)
15.01.2014 06:52 2,1 C 0,0 C 92 % 1008,7 hPa 0,0 l/m 0 min 0 min 0,0 UV-I 0 W/m 10,3 km/h (2 Bft)
15.01.2014 06:54 2,1 C 0,0 C 92 % 1008,8 hPa 0,0 l/m 0 min 0 min 0,0 UV-I 0 W/m 7,7 km/h (2 Bft)
15.01.2014 06:56 2,1 C 0,0 C 92 % 1008,7 hPa 0,0 l/m 0 min 0 min 0,0 UV-I 0 W/m 2,6 km/h (1 Bft)
15.01.2014 06:58 2,0 C 0,0 C 92 % 1008,7 hPa 0,0 l/m 0 min 0 min 0,0 UV-I 0 W/m 10,3 km/h (2 Bft)
15.01.2014 07:00 2,0 C 0,0 C 92 % 1008,7 hPa 0,0 l/m 0 min 0 min 0,0 UV-I 0 W/m 2,6 km/h (1 Bft)
15.01.2014 07:02 2,0 C 0,0 C 92 % 1008,7 hPa 0,0 l/m 0 min 0 min 0,0 UV-I 0 W/m 5,1 km/h (1 Bft)
15.01.2014 07:04 1,9 C 0,0 C 92 % 1008,7 hPa 0,0 l/m 0 min 0 min 0,0 UV-I 0 W/m 7,7 km/h (2 Bft)
15.01.2014 07:06 1,9 C 0,0 C 92 % 1008,6 hPa 0,0 l/m 0 min 0 min 0,0 UV-I 0 W/m 5,1 km/h (1 Bft)
15.01.2014 07:08 1,9 C 0,0 C 93 % 1008,7 hPa 0,0 l/m 0 min 0 min 0,0 UV-I 0 W/m 5,1 km/h (1 Bft)
15.01.2014 07:10 1,9 C 0,0 C 93 % 1008,7 hPa 0,0 l/m 0 min 0 min 0,0 UV-I 0 W/m 2,6 km/h (1 Bft)
15.01.2014 07:12 1,9 C 0,0 C 93 % 1008,7 hPa 0,0 l/m 0 min 0 min 0,0 UV-I 0 W/m 7,7 km/h (2 Bft)
15.01.2014 07:14 1,9 C 0,0 C 93 % 1008,7 hPa 0,0 l/m 0 min 0 min 0,0 UV-I 0 W/m 7,7 km/h (2 Bft)
15.01.2014 07:16 1,9 C 0,0 C 93 % 1008,7 hPa 0,0 l/m 0 min 0 min 0,0 UV-I 0 W/m 2,6 km/h (1 Bft)
15.01.2014 07:18 1,9 C 0,0 C 93 % 1008,8 hPa 0,0 l/m 0 min 0 min 0,0 UV-I 0 W/m 7,7 km/h (2 Bft)
15.01.2014 07:20 1,8 C 0,0 C 93 % 1008,7 hPa 0,0 l/m 0 min 0 min 0,0 UV-I 0 W/m 7,7 km/h (2 Bft)
15.01.2014 07:22 1,8 C 0,0 C 93 % 1008,7 hPa 0,0 l/m 0 min 0 min 0,0 UV-I 0 W/m 7,7 km/h (2 Bft)
15.01.2014 07:24 1,8 C 0,0 C 93 % 1008,7 hPa 0,0 l/m 0 min 0 min 0,0 UV-I 0 W/m 7,7 km/h (2 Bft)
15.01.2014 07:26 1,8 C 0,6 C 93 % 1008,7 hPa 0,0 l/m 0 min 0 min 0,0 UV-I 0 W/m 10,3 km/h (2 Bft)
15.01.2014 07:28 1,8 C 0,6 C 93 % 1008,7 hPa 0,0 l/m 0 min 0 min 0,0 UV-I 0 W/m 10,3 km/h (2 Bft)
15.01.2014 07:30 1,8 C 0,0 C 93 % 1008,8 hPa 0,0 l/m 0 min 0 min 0,0 UV-I 0 W/m 7,7 km/h (2 Bft)
15.01.2014 07:32 1,8 C 0,6 C 93 % 1008,7 hPa 0,0 l/m 0 min 0 min 0,0 UV-I 0 W/m 12,9 km/h (3 Bft)
15.01.2014 07:34 1,8 C 0,6 C 93 % 1008,7 hPa 0,0 l/m 0 min 0 min 0,0 UV-I 0 W/m 7,7 km/h (2 Bft)
15.01.2014 07:36 1,8 C 0,6 C 93 % 1008,8 hPa 0,0 l/m 0 min 0 min 0,0 UV-I 0 W/m 10,3 km/h (2 Bft)
15.01.2014 07:38 1,8 C 0,6 C 93 % 1008,6 hPa 0,0 l/m 0 min 0 min 0,0 UV-I 0 W/m 15,4 km/h (3 Bft)
15.01.2014 07:40 1,7 C 0,6 C 93 % 1008,6 hPa 0,0 l/m 0 min 0 min 0,0 UV-I 0 W/m 12,9 km/h (3 Bft)
15.01.2014 07:42 1,7 C 0,6 C 93 % 1008,6 hPa 0,0 l/m 0 min 0 min 0,0 UV-I 0 W/m 10,3 km/h (2 Bft)
15.01.2014 07:44 1,7 C 0,6 C 93 % 1008,6 hPa 0,0 l/m 0 min 0 min 0,0 UV-I 0 W/m 12,9 km/h (3 Bft)
15.01.2014 07:46 1,7 C 0,6 C 93 % 1008,5 hPa 0,0 l/m 0 min 0 min 0,0 UV-I 0 W/m 12,9 km/h (3 Bft)
15.01.2014 07:48 1,7 C 0,0 C 93 % 1008,6 hPa 0,0 l/m 0 min 0 min 0,0 UV-I 0 W/m 7,7 km/h (2 Bft)
15.01.2014 07:50 1,7 C 0,0 C 93 % 1008,7 hPa 0,0 l/m 0 min 0 min 0,0 UV-I 0 W/m 10,3 km/h (2 Bft)
15.01.2014 07:52 1,7 C 0,6 C 93 % 1008,7 hPa 0,0 l/m 0 min 0 min 0,0 UV-I 0 W/m 12,9 km/h (3 Bft)
15.01.2014 07:54 1,7 C 0,6 C 93 % 1008,6 hPa 0,0 l/m 0 min 0 min 0,0 UV-I 0 W/m 10,3 km/h (2 Bft)
15.01.2014 07:56 1,7 C 0,6 C 93 % 1008,6 hPa 0,0 l/m 0 min 0 min 0,0 UV-I 0 W/m 0,0 km/h (0 Bft)
15.01.2014 07:58 1,7 C 0,6 C 93 % 1008,6 hPa 0,0 l/m 0 min 0 min 0,0 UV-I 0 W/m 15,4 km/h (3 Bft)
15.01.2014 08:00 1,6 C 0,6 C 93 % 1008,5 hPa 0,0 l/m 0 min 0 min 0,0 UV-I 0 W/m 10,3 km/h (2 Bft)
15.01.2014 08:02 1,6 C 0,6 C 93 % 1008,5 hPa 0,0 l/m 0 min 0 min 0,0 UV-I 0 W/m 7,7 km/h (2 Bft)
15.01.2014 08:04 1,6 C 0,6 C 93 % 1008,6 hPa 0,0 l/m 0 min 0 min 0,0 UV-I 0 W/m 5,1 km/h (1 Bft)
15.01.2014 08:06 1,6 C 0,6 C 93 % 1008,6 hPa 0,0 l/m 0 min 0 min 0,0 UV-I 0 W/m 7,7 km/h (2 Bft)
15.01.2014 08:08 1,6 C 0,6 C 93 % 1008,7 hPa 0,0 l/m 0 min 0 min 0,0 UV-I 0 W/m 10,3 km/h (2 Bft)
15.01.2014 08:10 1,6 C 0,6 C 93 % 1008,7 hPa 0,0 l/m 0 min 0 min 0,0 UV-I 0 W/m 7,7 km/h (2 Bft)
15.01.2014 08:12 1,6 C 0,6 C 93 % 1008,6 hPa 0,0 l/m 0 min 0 min 0,0 UV-I 0 W/m 12,9 km/h (3 Bft)
15.01.2014 08:14 1,6 C 0,6 C 93 % 1008,6 hPa 0,0 l/m 0 min 0 min 0,0 UV-I 0 W/m 7,7 km/h (2 Bft)
15.01.2014 08:16 1,6 C 0,6 C 93 % 1008,7 hPa 0,0 l/m 0 min 0 min 0,0 UV-I 0 W/m 7,7 km/h (2 Bft)
15.01.2014 08:18 1,6 C 0,6 C 93 % 1008,7 hPa 0,0 l/m 0 min 0 min 0,0 UV-I 5 W/m 10,3 km/h (2 Bft)
15.01.2014 08:20 1,6 C 0,6 C 93 % 1008,7 hPa 0,0 l/m 0 min 0 min 0,0 UV-I 5 W/m 12,9 km/h (3 Bft)
15.01.2014 08:22 1,6 C 0,6 C 93 % 1008,6 hPa 0,0 l/m 0 min 0 min 0,0 UV-I 7 W/m 10,3 km/h (2 Bft)
15.01.2014 08:24 1,6 C 0,6 C 93 % 1008,7 hPa 0,0 l/m 0 min 0 min 0,0 UV-I 7 W/m 15,4 km/h (3 Bft)
15.01.2014 08:26 1,6 C 0,6 C 93 % 1008,6 hPa 0,0 l/m 0 min 0 min 0,0 UV-I 9 W/m 15,4 km/h (3 Bft)
15.01.2014 08:28 1,6 C 0,6 C 93 % 1008,6 hPa 0,0 l/m 0 min 0 min 0,0 UV-I 9 W/m 12,9 km/h (3 Bft)
15.01.2014 08:30 1,6 C 0,6 C 93 % 1008,6 hPa 0,0 l/m 0 min 0 min 0,0 UV-I 9 W/m 15,4 km/h (3 Bft)
15.01.2014 08:32 1,6 C 0,6 C 93 % 1008,6 hPa 0,0 l/m 0 min 0 min 0,0 UV-I 9 W/m 12,9 km/h (3 Bft)
15.01.2014 08:34 1,7 C 0,6 C 93 % 1008,7 hPa 0,0 l/m 0 min 0 min 0,0 UV-I 11 W/m 10,3 km/h (2 Bft)
15.01.2014 08:36 1,7 C 0,6 C 93 % 1008,7 hPa 0,0 l/m 0 min 0 min 0,0 UV-I 12 W/m 10,3 km/h (2 Bft)
15.01.2014 08:38 1,7 C 0,6 C 93 % 1008,7 hPa 0,0 l/m 0 min 0 min 0,0 UV-I 12 W/m 10,3 km/h (2 Bft)
15.01.2014 08:40 1,7 C 0,6 C 93 % 1008,7 hPa 0,0 l/m 0 min 0 min 0,0 UV-I 14 W/m 12,9 km/h (3 Bft)
15.01.2014 08:42 1,7 C 0,6 C 93 % 1008,7 hPa 0,0 l/m 0 min 0 min 0,0 UV-I 14 W/m 18,0 km/h (3 Bft)
15.01.2014 08:44 1,7 C 0,6 C 93 % 1008,7 hPa 0,0 l/m 0 min 0 min 0,0 UV-I 18 W/m 7,7 km/h (2 Bft)
15.01.2014 08:46 1,7 C 0,6 C 93 % 1008,6 hPa 0,0 l/m 2 min 0 min 0,0 UV-I 21 W/m 10,3 km/h (2 Bft)
15.01.2014 08:48 1,7 C 0,6 C 93 % 1008,6 hPa 0,0 l/m 2 min 0 min 0,0 UV-I 23 W/m 18,0 km/h (3 Bft)
15.01.2014 08:50 1,7 C 0,6 C 93 % 1008,7 hPa 0,0 l/m 2 min 0 min 0,0 UV-I 21 W/m 10,3 km/h (2 Bft)
15.01.2014 08:52 1,7 C 0,6 C 93 % 1008,6 hPa 0,0 l/m 0 min 0 min 0,0 UV-I 16 W/m 10,3 km/h (2 Bft)
15.01.2014 08:54 1,7 C 1,1 C 93 % 1008,6 hPa 0,0 l/m 0 min 0 min 0,0 UV-I 14 W/m 12,9 km/h (3 Bft)
15.01.2014 08:56 1,8 C 1,1 C 93 % 1008,7 hPa 0,0 l/m 0 min 0 min 0,0 UV-I 12 W/m 10,3 km/h (2 Bft)
15.01.2014 08:58 1,8 C 1,1 C 93 % 1008,7 hPa 0,0 l/m 0 min 0 min 0,0 UV-I 14 W/m 12,9 km/h (3 Bft)
15.01.2014 09:00 1,8 C 1,1 C 93 % 1008,7 hPa 0,0 l/m 0 min 0 min 0,0 UV-I 14 W/m 7,7 km/h (2 Bft)
15.01.2014 09:02 1,8 C 1,1 C 92 % 1008,7 hPa 0,0 l/m 0 min 0 min 0,0 UV-I 14 W/m 10,3 km/h (2 Bft)
15.01.2014 09:04 1,8 C 1,1 C 92 % 1008,8 hPa 0,0 l/m 0 min 0 min 0,0 UV-I 16 W/m 12,9 km/h (3 Bft)
15.01.2014 09:06 1,9 C 1,1 C 93 % 1008,8 hPa 0,0 l/m 0 min 0 min 0,0 UV-I 16 W/m 15,4 km/h (3 Bft)
15.01.2014 09:08 1,9 C 1,1 C 93 % 1008,7 hPa 0,0 l/m 0 min 0 min 0,0 UV-I 18 W/m 15,4 km/h (3 Bft)
15.01.2014 09:10 1,9 C 1,1 C 93 % 1008,7 hPa 0,0 l/m 0 min 0 min 0,0 UV-I 19 W/m 15,4 km/h (3 Bft)
15.01.2014 09:12 1,9 C 1,1 C 92 % 1008,7 hPa 0,0 l/m 0 min 0 min 0,0 UV-I 21 W/m 18,0 km/h (3 Bft)
15.01.2014 09:14 2,0 C 1,1 C 92 % 1008,7 hPa 0,0 l/m 0 min 0 min 0,0 UV-I 25 W/m 15,4 km/h (3 Bft)
15.01.2014 09:16 2,1 C 1,1 C 92 % 1008,7 hPa 0,0 l/m 0 min 0 min 0,0 UV-I 26 W/m 20,6 km/h (4 Bft)
15.01.2014 09:18 2,1 C 1,1 C 92 % 1008,7 hPa 0,0 l/m 0 min 0 min 0,0 UV-I 28 W/m 10,3 km/h (2 Bft)
15.01.2014 09:20 2,1 C 1,1 C 92 % 1008,7 hPa 0,0 l/m 0 min 0 min 0,0 UV-I 32 W/m 20,6 km/h (4 Bft)
15.01.2014 09:22 2,1 C 1,1 C 92 % 1008,8 hPa 0,0 l/m 0 min 0 min 0,0 UV-I 35 W/m 15,4 km/h (3 Bft)
15.01.2014 09:24 2,2 C 1,7 C 92 % 1008,7 hPa 0,0 l/m 0 min 0 min 0,0 UV-I 37 W/m 15,4 km/h (3 Bft)
15.01.2014 09:26 2,2 C 1,7 C 92 % 1008,7 hPa 0,0 l/m 0 min 0 min 0,0 UV-I 40 W/m 12,9 km/h (3 Bft)
15.01.2014 09:28 2,2 C 1,7 C 92 % 1008,7 hPa 0,0 l/m 0 min 0 min 0,0 UV-I 42 W/m 18,0 km/h (3 Bft)
15.01.2014 09:30 2,2 C 1,7 C 92 % 1008,7 hPa 0,0 l/m 0 min 0 min 0,0 UV-I 46 W/m 10,3 km/h (2 Bft)
15.01.2014 09:32 2,3 C 1,7 C 92 % 1008,7 hPa 0,0 l/m 0 min 0 min 0,0 UV-I 47 W/m 15,4 km/h (3 Bft)
15.01.2014 09:34 2,3 C 1,7 C 91 % 1008,8 hPa 0,0 l/m 0 min 0 min 0,0 UV-I 49 W/m 15,4 km/h (3 Bft)
15.01.2014 09:36 2,3 C 1,7 C 91 % 1008,8 hPa 0,0 l/m 0 min 0 min 0,0 UV-I 51 W/m 10,3 km/h (2 Bft)
15.01.2014 09:38 2,3 C 1,7 C 91 % 1008,8 hPa 0,0 l/m 0 min 0 min 0,0 UV-I 51 W/m 10,3 km/h (2 Bft)
15.01.2014 09:40 2,4 C 1,7 C 91 % 1008,8 hPa 0,0 l/m 0 min 0 min 0,0 UV-I 47 W/m 12,9 km/h (3 Bft)
15.01.2014 09:42 2,4 C 1,7 C 91 % 1008,8 hPa 0,0 l/m 0 min 0 min 0,0 UV-I 46 W/m 12,9 km/h (3 Bft)
15.01.2014 09:44 2,4 C 1,7 C 91 % 1008,7 hPa 0,0 l/m 0 min 0 min 0,0 UV-I 42 W/m 15,4 km/h (3 Bft)
15.01.2014 09:46 2,4 C 1,7 C 91 % 1008,7 hPa 0,0 l/m 0 min 0 min 0,0 UV-I 40 W/m 7,7 km/h (2 Bft)
15.01.2014 09:48 2,5 C 1,7 C 91 % 1008,6 hPa 0,0 l/m 0 min 0 min 0,0 UV-I 39 W/m 7,7 km/h (2 Bft)
15.01.2014 09:50 2,5 C 1,7 C 91 % 1008,7 hPa 0,0 l/m 0 min 0 min 0,0 UV-I 40 W/m 23,2 km/h (4 Bft)
15.01.2014 09:52 2,5 C 1,7 C 91 % 1008,7 hPa 0,0 l/m 0 min 0 min 0,0 UV-I 44 W/m 0,0 km/h (0 Bft)
15.01.2014 09:54 2,6 C 1,7 C 91 % 1008,6 hPa 0,0 l/m 0 min 0 min 0,0 UV-I 53 W/m 7,7 km/h (2 Bft)
15.01.2014 09:56 2,6 C 2,2 C 91 % 1008,6 hPa 0,0 l/m 0 min 0 min 0,0 UV-I 65 W/m 12,9 km/h (3 Bft)
15.01.2014 09:58 2,6 C 2,2 C 90 % 1008,6 hPa 0,0 l/m 0 min 0 min 0,0 UV-I 72 W/m 12,9 km/h (3 Bft)
15.01.2014 10:00 2,7 C 2,2 C 90 % 1008,5 hPa 0,0 l/m 0 min 0 min 0,0 UV-I 74 W/m 10,3 km/h (2 Bft)
15.01.2014 10:02 2,7 C 2,2 C 90 % 1008,5 hPa 0,0 l/m 0 min 0 min 0,0 UV-I 72 W/m 0,0 km/h (0 Bft)
15.01.2014 10:04 2,7 C 2,2 C 91 % 1008,5 hPa 0,0 l/m 0 min 0 min 0,0 UV-I 72 W/m 7,7 km/h (2 Bft)
15.01.2014 10:06 2,8 C 2,2 C 91 % 1008,5 hPa 0,0 l/m 0 min 0 min 0,0 UV-I 69 W/m 15,4 km/h (3 Bft)
15.01.2014 10:08 2,9 C 2,2 C 90 % 1008,5 hPa 0,0 l/m 0 min 0 min 0,0 UV-I 70 W/m 7,7 km/h (2 Bft)
15.01.2014 10:10 3,0 C 2,2 C 90 % 1008,5 hPa 0,0 l/m 0 min 0 min 0,0 UV-I 76 W/m 7,7 km/h (2 Bft)
15.01.2014 10:12 3,1 C 2,2 C 90 % 1008,5 hPa 0,0 l/m 0 min 0 min 0,0 UV-I 84 W/m 15,4 km/h (3 Bft)
15.01.2014 10:14 3,1 C 2,8 C 90 % 1008,4 hPa 0,0 l/m 0 min 0 min 0,0 UV-I 86 W/m 5,1 km/h (1 Bft)
15.01.2014 10:16 3,2 C 2,8 C 90 % 1008,4 hPa 0,0 l/m 0 min 0 min 0,0 UV-I 91 W/m 10,3 km/h (2 Bft)
15.01.2014 10:18 3,2 C 2,8 C 90 % 1008,4 hPa 0,0 l/m 0 min 0 min 0,0 UV-I 97 W/m 12,9 km/h (3 Bft)
15.01.2014 10:20 3,3 C 2,8 C 90 % 1008,4 hPa 0,0 l/m 0 min 0 min 0,0 UV-I 83 W/m 10,3 km/h (2 Bft)
15.01.2014 10:22 3,3 C 2,8 C 90 % 1008,4 hPa 0,0 l/m 0 min 0 min 0,0 UV-I 77 W/m 15,4 km/h (3 Bft)
15.01.2014 10:24 3,3 C 2,8 C 89 % 1008,4 hPa 0,0 l/m 0 min 0 min 0,0 UV-I 72 W/m 12,9 km/h (3 Bft)
15.01.2014 10:26 3,4 C 2,8 C 89 % 1008,4 hPa 0,0 l/m 0 min 0 min 0,0 UV-I 76 W/m 18,0 km/h (3 Bft)
15.01.2014 10:28 3,4 C 2,8 C 89 % 1008,4 hPa 0,0 l/m 0 min 0 min 0,0 UV-I 84 W/m 15,4 km/h (3 Bft)
15.01.2014 10:30 3,4 C 2,8 C 89 % 1008,4 hPa 0,0 l/m 0 min 0 min 0,0 UV-I 93 W/m 18,0 km/h (3 Bft)
15.01.2014 10:32 3,4 C 2,8 C 89 % 1008,4 hPa 0,0 l/m 0 min 0 min 0,0 UV-I 91 W/m 15,4 km/h (3 Bft)
15.01.2014 10:34 3,5 C 3,3 C 89 % 1008,3 hPa 0,0 l/m 0 min 0 min 0,0 UV-I 81 W/m 15,4 km/h (3 Bft)
15.01.2014 10:36 3,6 C 3,3 C 89 % 1008,3 hPa 0,0 l/m 0 min 0 min 0,0 UV-I 67 W/m 12,9 km/h (3 Bft)
15.01.2014 10:38 3,6 C 2,8 C 89 % 1008,3 hPa 0,0 l/m 0 min 0 min 0,0 UV-I 58 W/m 7,7 km/h (2 Bft)
15.01.2014 10:40 3,6 C 2,8 C 89 % 1008,3 hPa 0,0 l/m 0 min 0 min 0,0 UV-I 53 W/m 10,3 km/h (2 Bft)
15.01.2014 10:42 3,6 C 2,8 C 89 % 1008,3 hPa 0,0 l/m 0 min 0 min 0,0 UV-I 60 W/m 12,9 km/h (3 Bft)
15.01.2014 10:44 3,6 C 3,3 C 88 % 1008,3 hPa 0,0 l/m 0 min 0 min 0,0 UV-I 67 W/m 20,6 km/h (4 Bft)
15.01.2014 10:46 3,6 C 3,3 C 88 % 1008,3 hPa 0,0 l/m 0 min 0 min 0,0 UV-I 70 W/m 15,4 km/h (3 Bft)
15.01.2014 10:48 3,7 C 3,3 C 88 % 1008,3 hPa 0,0 l/m 0 min 0 min 0,0 UV-I 67 W/m 18,0 km/h (3 Bft)
15.01.2014 10:50 3,7 C 2,8 C 88 % 1008,3 hPa 0,0 l/m 0 min 0 min 0,0 UV-I 65 W/m 18,0 km/h (3 Bft)
15.01.2014 10:52 3,7 C 2,8 C 88 % 1008,3 hPa 0,0 l/m 0 min 2 min 0,0 UV-I 63 W/m 15,4 km/h (3 Bft)
15.01.2014 10:54 3,7 C 2,8 C 89 % 1008,3 hPa 0,0 l/m 0 min 2 min 0,0 UV-I 63 W/m 18,0 km/h (3 Bft)
15.01.2014 10:56 3,7 C 2,8 C 89 % 1008,3 hPa 0,0 l/m 0 min 2 min 0,0 UV-I 58 W/m 15,4 km/h (3 Bft)
15.01.2014 10:58 3,7 C 2,8 C 89 % 1008,3 hPa 0,0 l/m 0 min 2 min 0,0 UV-I 53 W/m 7,7 km/h (2 Bft)
15.01.2014 11:00 3,6 C 2,8 C 89 % 1008,3 hPa 0,0 l/m 0 min 2 min 0,0 UV-I 51 W/m 15,4 km/h (3 Bft)
15.01.2014 11:02 3,6 C 2,2 C 89 % 1008,4 hPa 0,0 l/m 0 min 2 min 0,0 UV-I 53 W/m 15,4 km/h (3 Bft)
15.01.2014 11:04 3,6 C 2,2 C 89 % 1008,4 hPa 0,0 l/m 0 min 2 min 0,0 UV-I 51 W/m 12,9 km/h (3 Bft)
15.01.2014 11:06 3,6 C 2,2 C 90 % 1008,3 hPa 0,0 l/m 0 min 2 min 0,0 UV-I 49 W/m 7,7 km/h (2 Bft)
15.01.2014 11:08 3,6 C 2,2 C 90 % 1008,4 hPa 0,0 l/m 0 min 2 min 0,0 UV-I 51 W/m 15,4 km/h (3 Bft)
15.01.2014 11:10 3,5 C 2,2 C 90 % 1008,4 hPa 0,0 l/m 0 min 2 min 0,0 UV-I 53 W/m 18,0 km/h (3 Bft)
15.01.2014 11:12 3,5 C 2,2 C 90 % 1008,3 hPa 0,0 l/m 0 min 2 min 0,0 UV-I 63 W/m 10,3 km/h (2 Bft)
15.01.2014 11:14 3,4 C 2,2 C 90 % 1008,3 hPa 0,0 l/m 0 min 2 min 0,0 UV-I 67 W/m 10,3 km/h (2 Bft)
15.01.2014 11:16 3,4 C 2,2 C 90 % 1008,3 hPa 0,0 l/m 0 min 2 min 0,0 UV-I 69 W/m 10,3 km/h (2 Bft)
15.01.2014 11:18 3,4 C 2,2 C 91 % 1008,3 hPa 0,0 l/m 0 min 2 min 0,0 UV-I 69 W/m 15,4 km/h (3 Bft)
15.01.2014 11:20 3,4 C 2,2 C 91 % 1008,3 hPa 0,0 l/m 0 min 0 min 0,0 UV-I 72 W/m 2,6 km/h (1 Bft)
15.01.2014 11:22 3,4 C 2,2 C 91 % 1008,2 hPa 0,0 l/m 0 min 0 min 0,0 UV-I 74 W/m 20,6 km/h (4 Bft)
15.01.2014 11:24 3,4 C 2,8 C 91 % 1008,3 hPa 0,0 l/m 0 min 0 min 0,0 UV-I 84 W/m 15,4 km/h (3 Bft)
15.01.2014 11:26 3,4 C 2,8 C 91 % 1008,2 hPa 0,0 l/m 0 min 0 min 0,0 UV-I 90 W/m 10,3 km/h (2 Bft)
15.01.2014 11:28 3,5 C 2,8 C 92 % 1008,2 hPa 0,0 l/m 0 min 0 min 0,0 UV-I 84 W/m 10,3 km/h (2 Bft)
15.01.2014 11:30 3,5 C 2,8 C 92 % 1008,2 hPa 0,0 l/m 0 min 2 min 0,0 UV-I 86 W/m 12,9 km/h (3 Bft)
15.01.2014 11:32 3,6 C 2,8 C 92 % 1008,1 hPa 0,0 l/m 0 min 0 min 0,0 UV-I 90 W/m 12,9 km/h (3 Bft)
15.01.2014 11:34 3,6 C 2,8 C 92 % 1008,1 hPa 0,0 l/m 0 min 2 min 0,0 UV-I 95 W/m 12,9 km/h (3 Bft)
15.01.2014 11:36 3,6 C 2,8 C 92 % 1008,1 hPa 0,0 l/m 0 min 2 min 0,0 UV-I 102 W/m 18,0 km/h (3 Bft)
15.01.2014 11:38 3,6 C 2,8 C 92 % 1008,0 hPa 0,0 l/m 0 min 2 min 0,0 UV-I 107 W/m 15,4 km/h (3 Bft)
15.01.2014 11:40 3,7 C 2,8 C 92 % 1008,0 hPa 0,0 l/m 0 min 2 min 0,0 UV-I 109 W/m 18,0 km/h (3 Bft)
15.01.2014 11:42 3,7 C 2,8 C 92 % 1008,0 hPa 0,0 l/m 0 min 2 min 0,0 UV-I 105 W/m 15,4 km/h (3 Bft)
15.01.2014 11:44 3,7 C 2,8 C 92 % 1007,9 hPa 0,0 l/m 0 min 2 min 0,0 UV-I 104 W/m 15,4 km/h (3 Bft)
15.01.2014 11:46 3,8 C 2,8 C 91 % 1007,9 hPa 0,0 l/m 0 min 2 min 0,0 UV-I 105 W/m 18,0 km/h (3 Bft)
15.01.2014 11:48 3,8 C 2,8 C 92 % 1007,9 hPa 0,0 l/m 0 min 2 min 0,0 UV-I 105 W/m 12,9 km/h (3 Bft)
15.01.2014 11:50 3,8 C 3,3 C 92 % 1007,8 hPa 0,0 l/m 0 min 0 min 0,0 UV-I 105 W/m 12,9 km/h (3 Bft)
15.01.2014 11:52 3,9 C 3,3 C 92 % 1007,8 hPa 0,0 l/m 0 min 2 min 0,0 UV-I 102 W/m 15,4 km/h (3 Bft)
15.01.2014 11:54 3,9 C 3,3 C 91 % 1007,7 hPa 0,0 l/m 0 min 2 min 0,0 UV-I 100 W/m 23,2 km/h (4 Bft)
15.01.2014 11:56 3,9 C 3,3 C 91 % 1007,7 hPa 0,0 l/m 0 min 2 min 0,0 UV-I 100 W/m 15,4 km/h (3 Bft)
15.01.2014 11:58 3,9 C 3,3 C 91 % 1007,6 hPa 0,0 l/m 0 min 0 min 0,0 UV-I 100 W/m 25,7 km/h (4 Bft)
15.01.2014 12:00 3,9 C 3,3 C 91 % 1007,6 hPa 0,0 l/m 0 min 0 min 0,0 UV-I 104 W/m 15,4 km/h (3 Bft)
15.01.2014 12:02 4,0 C 3,3 C 91 % 1007,5 hPa 0,0 l/m 0 min 2 min 0,0 UV-I 111 W/m 20,6 km/h (4 Bft)
15.01.2014 12:04 4,0 C 3,3 C 91 % 1007,5 hPa 0,0 l/m 0 min 0 min 0,0 UV-I 118 W/m 12,9 km/h (3 Bft)
15.01.2014 12:06 4,1 C 3,3 C 91 % 1007,5 hPa 0,0 l/m 0 min 0 min 0,0 UV-I 118 W/m 18,0 km/h (3 Bft)
15.01.2014 12:08 4,1 C 3,3 C 91 % 1007,4 hPa 0,0 l/m 0 min 0 min 0,0 UV-I 118 W/m 25,7 km/h (4 Bft)
15.01.2014 12:10 4,2 C 3,3 C 91 % 1007,4 hPa 0,0 l/m 0 min 0 min 0,0 UV-I 116 W/m 30,9 km/h (5 Bft)
15.01.2014 12:12 4,2 C 3,3 C 90 % 1007,4 hPa 0,0 l/m 0 min 0 min 0,0 UV-I 111 W/m 28,3 km/h (4 Bft)
15.01.2014 12:14 4,2 C 3,3 C 90 % 1007,4 hPa 0,0 l/m 0 min 0 min 0,0 UV-I 104 W/m 18,0 km/h (3 Bft)
15.01.2014 12:16 4,2 C 3,3 C 90 % 1007,3 hPa 0,0 l/m 0 min 0 min 0,0 UV-I 95 W/m 15,4 km/h (3 Bft)
15.01.2014 12:18 4,2 C 3,3 C 90 % 1007,3 hPa 0,0 l/m 0 min 0 min 0,0 UV-I 88 W/m 23,2 km/h (4 Bft)
15.01.2014 12:20 4,3 C 3,3 C 90 % 1007,3 hPa 0,0 l/m 0 min 0 min 0,0 UV-I 77 W/m 15,4 km/h (3 Bft)
15.01.2014 12:22 4,3 C 3,3 C 90 % 1007,2 hPa 0,0 l/m 0 min 0 min 0,0 UV-I 72 W/m 20,6 km/h (4 Bft)
15.01.2014 12:24 4,3 C 3,3 C 90 % 1007,3 hPa 0,0 l/m 0 min 0 min 0,0 UV-I 74 W/m 15,4 km/h (3 Bft)
15.01.2014 12:26 4,3 C 3,3 C 90 % 1007,3 hPa 0,0 l/m 0 min 0 min 0,0 UV-I 77 W/m 20,6 km/h (4 Bft)
15.01.2014 12:28 4,3 C 3,3 C 90 % 1007,2 hPa 0,0 l/m 0 min 0 min 0,0 UV-I 77 W/m 15,4 km/h (3 Bft)
15.01.2014 12:30 4,3 C 3,3 C 90 % 1007,2 hPa 0,0 l/m 0 min 0 min 0,0 UV-I 77 W/m 18,0 km/h (3 Bft)
15.01.2014 12:32 4,3 C 3,3 C 90 % 1007,2 hPa 0,0 l/m 0 min 0 min 0,0 UV-I 74 W/m 20,6 km/h (4 Bft)
15.01.2014 12:34 4,3 C 3,3 C 90 % 1007,1 hPa 0,0 l/m 0 min 0 min 0,0 UV-I 67 W/m 12,9 km/h (3 Bft)
15.01.2014 12:36 4,4 C 3,3 C 90 % 1007,1 hPa 0,0 l/m 0 min 0 min 0,0 UV-I 67 W/m 15,4 km/h (3 Bft)
15.01.2014 12:38 4,4 C 3,3 C 90 % 1007,1 hPa 0,0 l/m 0 min 0 min 0,0 UV-I 65 W/m 20,6 km/h (4 Bft)
15.01.2014 12:40 4,4 C 3,3 C 90 % 1007,1 hPa 0,0 l/m 0 min 0 min 0,0 UV-I 63 W/m 10,3 km/h (2 Bft)
15.01.2014 12:42 4,4 C 3,3 C 90 % 1007,0 hPa 0,0 l/m 0 min 0 min 0,0 UV-I 70 W/m 25,7 km/h (4 Bft)
15.01.2014 12:44 4,4 C 3,3 C 89 % 1007,0 hPa 0,0 l/m 0 min 0 min 0,0 UV-I 81 W/m 20,6 km/h (4 Bft)
15.01.2014 12:46 4,4 C 3,9 C 89 % 1007,0 hPa 0,0 l/m 0 min 0 min 0,0 UV-I 93 W/m 12,9 km/h (3 Bft)
15.01.2014 12:48 4,4 C 3,9 C 89 % 1006,9 hPa 0,0 l/m 0 min 0 min 0,0 UV-I 91 W/m 15,4 km/h (3 Bft)
15.01.2014 12:50 4,5 C 3,9 C 89 % 1006,9 hPa 0,0 l/m 0 min 0 min 0,0 UV-I 90 W/m 23,2 km/h (4 Bft)
15.01.2014 12:52 4,5 C 3,9 C 89 % 1006,9 hPa 0,0 l/m 0 min 0 min 0,0 UV-I 88 W/m 18,0 km/h (3 Bft)
15.01.2014 12:54 4,5 C 3,9 C 89 % 1006,9 hPa 0,0 l/m 0 min 0 min 0,0 UV-I 81 W/m 12,9 km/h (3 Bft)
15.01.2014 12:56 4,6 C 3,9 C 89 % 1006,9 hPa 0,0 l/m 0 min 0 min 0,0 UV-I 70 W/m 28,3 km/h (4 Bft)
15.01.2014 12:58 4,6 C 3,9 C 89 % 1006,8 hPa 0,0 l/m 0 min 0 min 0,0 UV-I 69 W/m 18,0 km/h (3 Bft)
15.01.2014 13:00 4,6 C 3,9 C 89 % 1007,0 hPa 0,0 l/m 0 min 0 min 0,0 UV-I 67 W/m 18,0 km/h (3 Bft)
15.01.2014 13:02 4,6 C 3,9 C 89 % 1006,8 hPa 0,0 l/m 0 min 0 min 0,0 UV-I 69 W/m 18,0 km/h (3 Bft)
15.01.2014 13:04 4,6 C 3,9 C 89 % 1006,9 hPa 0,0 l/m 0 min 0 min 0,0 UV-I 67 W/m 25,7 km/h (4 Bft)
15.01.2014 13:06 4,6 C 3,9 C 89 % 1006,9 hPa 0,0 l/m 0 min 0 min 0,0 UV-I 70 W/m 12,9 km/h (3 Bft)
15.01.2014 13:08 4,6 C 3,9 C 89 % 1006,9 hPa 0,0 l/m 0 min 0 min 0,0 UV-I 72 W/m 23,2 km/h (4 Bft)
15.01.2014 13:10 4,6 C 3,9 C 89 % 1006,8 hPa 0,0 l/m 0 min 0 min 0,0 UV-I 76 W/m 23,2 km/h (4 Bft)
15.01.2014 13:12 4,7 C 3,9 C 89 % 1006,8 hPa 0,0 l/m 0 min 0 min 0,0 UV-I 84 W/m 15,4 km/h (3 Bft)
15.01.2014 13:14 4,7 C 3,9 C 89 % 1006,8 hPa 0,0 l/m 0 min 0 min 0,0 UV-I 86 W/m 23,2 km/h (4 Bft)
15.01.2014 13:16 4,7 C 3,9 C 89 % 1006,6 hPa 0,0 l/m 0 min 2 min 0,0 UV-I 84 W/m 18,0 km/h (3 Bft)
15.01.2014 13:18 4,7 C 3,9 C 90 % 1006,6 hPa 0,0 l/m 0 min 2 min 0,0 UV-I 83 W/m 10,3 km/h (2 Bft)
15.01.2014 13:20 4,7 C 3,9 C 90 % 1006,6 hPa 0,0 l/m 0 min 2 min 0,0 UV-I 72 W/m 25,7 km/h (4 Bft)
15.01.2014 13:22 4,7 C 3,9 C 90 % 1006,6 hPa 0,0 l/m 0 min 2 min 0,0 UV-I 69 W/m 12,9 km/h (3 Bft)
15.01.2014 13:24 4,7 C 3,9 C 90 % 1006,6 hPa 0,0 l/m 0 min 2 min 0,0 UV-I 67 W/m 15,4 km/h (3 Bft)
15.01.2014 13:26 4,7 C 3,9 C 90 % 1006,5 hPa 0,0 l/m 0 min 2 min 0,0 UV-I 63 W/m 12,9 km/h (3 Bft)
15.01.2014 13:28 4,7 C 3,9 C 90 % 1006,5 hPa 0,0 l/m 0 min 2 min 0,0 UV-I 58 W/m 2,6 km/h (1 Bft)
15.01.2014 13:30 4,7 C 3,9 C 90 % 1006,5 hPa 0,0 l/m 0 min 2 min 0,0 UV-I 51 W/m 10,3 km/h (2 Bft)
15.01.2014 13:32 4,7 C 3,9 C 91 % 1006,5 hPa 0,0 l/m 0 min 2 min 0,0 UV-I 46 W/m 7,7 km/h (2 Bft)
15.01.2014 13:34 4,7 C 3,9 C 91 % 1006,5 hPa 0,0 l/m 0 min 2 min 0,0 UV-I 44 W/m 12,9 km/h (3 Bft)
15.01.2014 13:36 4,7 C 3,9 C 91 % 1006,6 hPa 0,0 l/m 0 min 0 min 0,0 UV-I 46 W/m 7,7 km/h (2 Bft)
15.01.2014 13:38 4,7 C 3,9 C 91 % 1006,5 hPa 0,0 l/m 0 min 0 min 0,0 UV-I 47 W/m 10,3 km/h (2 Bft)
15.01.2014 13:40 4,7 C 3,9 C 91 % 1006,5 hPa 0,0 l/m 0 min 0 min 0,0 UV-I 47 W/m 10,3 km/h (2 Bft)
15.01.2014 13:42 4,7 C 3,9 C 91 % 1006,4 hPa 0,0 l/m 0 min 0 min 0,0 UV-I 47 W/m 7,7 km/h (2 Bft)
15.01.2014 13:44 4,7 C 3,9 C 91 % 1006,4 hPa 0,0 l/m 0 min 0 min 0,0 UV-I 46 W/m 5,1 km/h (1 Bft)
15.01.2014 13:46 4,7 C 3,9 C 91 % 1006,3 hPa 0,0 l/m 0 min 0 min 0,0 UV-I 44 W/m 12,9 km/h (3 Bft)
15.01.2014 13:48 4,7 C 3,9 C 91 % 1006,4 hPa 0,0 l/m 0 min 0 min 0,0 UV-I 44 W/m 15,4 km/h (3 Bft)
15.01.2014 13:50 4,7 C 3,9 C 91 % 1006,3 hPa 0,0 l/m 0 min 0 min 0,0 UV-I 46 W/m 12,9 km/h (3 Bft)
15.01.2014 13:52 4,8 C 3,9 C 91 % 1006,4 hPa 0,0 l/m 0 min 0 min 0,0 UV-I 47 W/m 12,9 km/h (3 Bft)
15.01.2014 13:54 4,8 C 3,9 C 91 % 1006,3 hPa 0,0 l/m 0 min 0 min 0,0 UV-I 49 W/m 12,9 km/h (3 Bft)
15.01.2014 13:56 4,8 C 3,9 C 91 % 1006,3 hPa 0,0 l/m 0 min 0 min 0,0 UV-I 51 W/m 10,3 km/h (2 Bft)
15.01.2014 13:58 4,8 C 3,9 C 91 % 1006,3 hPa 0,0 l/m 0 min 0 min 0,0 UV-I 47 W/m 25,7 km/h (4 Bft)
15.01.2014 14:00 4,8 C 3,9 C 91 % 1006,2 hPa 0,0 l/m 0 min 0 min 0,0 UV-I 49 W/m 23,2 km/h (4 Bft)
15.01.2014 14:02 4,8 C 3,9 C 91 % 1006,2 hPa 0,0 l/m 0 min 2 min 0,0 UV-I 46 W/m 15,4 km/h (3 Bft)
15.01.2014 14:04 4,9 C 3,9 C 91 % 1006,2 hPa 0,0 l/m 0 min 0 min 0,0 UV-I 40 W/m 20,6 km/h (4 Bft)
15.01.2014 14:06 4,9 C 3,9 C 91 % 1006,2 hPa 0,0 l/m 0 min 2 min 0,0 UV-I 42 W/m 15,4 km/h (3 Bft)
15.01.2014 14:08 4,9 C 3,9 C 91 % 1006,1 hPa 0,0 l/m 0 min 0 min 0,0 UV-I 44 W/m 23,2 km/h (4 Bft)
15.01.2014 14:10 4,8 C 3,9 C 91 % 1006,0 hPa 0,0 l/m 0 min 2 min 0,0 UV-I 46 W/m 18,0 km/h (3 Bft)
15.01.2014 14:12 4,8 C 3,9 C 91 % 1006,0 hPa 0,0 l/m 0 min 0 min 0,0 UV-I 46 W/m 18,0 km/h (3 Bft)
15.01.2014 14:14 4,8 C 3,9 C 91 % 1006,1 hPa 0,0 l/m 0 min 2 min 0,0 UV-I 51 W/m 10,3 km/h (2 Bft)
15.01.2014 14:16 4,8 C 3,9 C 91 % 1006,1 hPa 0,0 l/m 0 min 0 min 0,0 UV-I 53 W/m 7,7 km/h (2 Bft)
15.01.2014 14:18 4,8 C 3,9 C 91 % 1006,0 hPa 0,0 l/m 0 min 2 min 0,0 UV-I 53 W/m 15,4 km/h (3 Bft)
15.01.2014 14:20 4,8 C 3,9 C 91 % 1006,0 hPa 0,0 l/m 0 min 0 min 0,0 UV-I 56 W/m 15,4 km/h (3 Bft)
15.01.2014 14:22 4,8 C 3,9 C 91 % 1006,0 hPa 0,0 l/m 0 min 2 min 0,0 UV-I 58 W/m 12,9 km/h (3 Bft)
15.01.2014 14:24 4,8 C 3,9 C 91 % 1006,0 hPa 0,0 l/m 0 min 2 min 0,0 UV-I 60 W/m 25,7 km/h (4 Bft)
15.01.2014 14:26 4,8 C 3,9 C 91 % 1006,0 hPa 0,0 l/m 0 min 2 min 0,0 UV-I 62 W/m 20,6 km/h (4 Bft)
15.01.2014 14:28 4,8 C 3,9 C 92 % 1005,9 hPa 0,0 l/m 0 min 2 min 0,0 UV-I 60 W/m 10,3 km/h (2 Bft)
15.01.2014 14:30 4,8 C 3,9 C 92 % 1005,9 hPa 0,0 l/m 0 min 2 min 0,0 UV-I 54 W/m 12,9 km/h (3 Bft)
15.01.2014 14:32 4,8 C 3,9 C 92 % 1006,0 hPa 0,0 l/m 0 min 2 min 0,0 UV-I 54 W/m 23,2 km/h (4 Bft)
15.01.2014 14:34 4,8 C 3,9 C 92 % 1005,9 hPa 0,0 l/m 0 min 2 min 0,0 UV-I 58 W/m 12,9 km/h (3 Bft)
15.01.2014 14:36 4,8 C 3,9 C 92 % 1005,9 hPa 0,0 l/m 0 min 2 min 0,0 UV-I 63 W/m 18,0 km/h (3 Bft)
15.01.2014 14:38 4,8 C 3,9 C 92 % 1005,8 hPa 0,0 l/m 0 min 2 min 0,0 UV-I 67 W/m 15,4 km/h (3 Bft)
15.01.2014 14:40 4,8 C 3,9 C 92 % 1005,8 hPa 0,0 l/m 0 min 2 min 0,0 UV-I 70 W/m 12,9 km/h (3 Bft)
15.01.2014 14:42 4,8 C 3,9 C 93 % 1005,8 hPa 0,0 l/m 0 min 2 min 0,0 UV-I 70 W/m 12,9 km/h (3 Bft)
15.01.2014 14:44 4,8 C 3,9 C 93 % 1005,8 hPa 0,0 l/m 0 min 2 min 0,0 UV-I 65 W/m 18,0 km/h (3 Bft)
15.01.2014 14:46 4,7 C 3,9 C 93 % 1005,8 hPa 0,2 l/m 0 min 2 min 0,0 UV-I 60 W/m 15,4 km/h (3 Bft)
15.01.2014 14:48 4,7 C 3,3 C 93 % 1005,7 hPa 0,0 l/m 0 min 2 min 0,0 UV-I 62 W/m 20,6 km/h (4 Bft)
15.01.2014 14:50 4,7 C 3,9 C 93 % 1005,7 hPa 0,0 l/m 0 min 2 min 0,0 UV-I 62 W/m 20,6 km/h (4 Bft)
15.01.2014 14:52 4,7 C 3,9 C 93 % 1005,7 hPa 0,0 l/m 0 min 2 min 0,0 UV-I 56 W/m 15,4 km/h (3 Bft)
15.01.2014 14:54 4,7 C 3,3 C 93 % 1005,7 hPa 0,0 l/m 0 min 2 min 0,0 UV-I 53 W/m 18,0 km/h (3 Bft)
15.01.2014 14:56 4,7 C 3,3 C 93 % 1005,7 hPa 0,0 l/m 0 min 2 min 0,0 UV-I 49 W/m 18,0 km/h (3 Bft)
15.01.2014 14:58 4,7 C 3,3 C 93 % 1005,7 hPa 0,0 l/m 0 min 2 min 0,0 UV-I 49 W/m 12,9 km/h (3 Bft)
15.01.2014 15:00 4,7 C 3,3 C 93 % 1005,7 hPa 0,0 l/m 0 min 2 min 0,0 UV-I 42 W/m 18,0 km/h (3 Bft)
15.01.2014 15:02 4,7 C 3,3 C 93 % 1005,7 hPa 0,0 l/m 0 min 2 min 0,0 UV-I 35 W/m 12,9 km/h (3 Bft)
15.01.2014 15:05 4,7 C 3,3 C 93 % 1005,7 hPa 0,0 l/m 0 min 2 min 0,0 UV-I 39 W/m 18,0 km/h (3 Bft)
15.01.2014 15:24 4,6 C 3,3 C 93 % 1005,7 hPa 0,0 l/m 0 min 2 min 0,0 UV-I 23 W/m 10,3 km/h (2 Bft)
15.01.2014 15:26 4,6 C 3,3 C 93 % 1005,7 hPa 0,0 l/m 0 min 0 min 0,0 UV-I 21 W/m 12,9 km/h (3 Bft)
15.01.2014 15:32 4,6 C 3,3 C 93 % 1005,7 hPa 0,0 l/m 0 min 0 min 0,0 UV-I 23 W/m 12,9 km/h (3 Bft)
15.01.2014 15:34 4,6 C 3,3 C 93 % 1005,8 hPa 0,0 l/m 0 min 2 min 0,0 UV-I 21 W/m 20,6 km/h (4 Bft)
15.01.2014 15:36 4,6 C 3,3 C 93 % 1005,7 hPa 0,0 l/m 0 min 2 min 0,0 UV-I 23 W/m 15,4 km/h (3 Bft)
15.01.2014 15:38 4,6 C 3,3 C 93 % 1005,7 hPa 0,0 l/m 0 min 0 min 0,0 UV-I 26 W/m 20,6 km/h (4 Bft)
15.01.2014 15:40 4,6 C 3,3 C 93 % 1005,7 hPa 0,0 l/m 0 min 2 min 0,0 UV-I 23 W/m 18,0 km/h (3 Bft)
15.01.2014 15:42 4,6 C 3,3 C 93 % 1005,7 hPa 0,0 l/m 0 min 2 min 0,0 UV-I 25 W/m 20,6 km/h (4 Bft)
15.01.2014 15:44 4,6 C 3,3 C 93 % 1005,6 hPa 0,0 l/m 0 min 2 min 0,0 UV-I 23 W/m 20,6 km/h (4 Bft)
15.01.2014 15:46 4,6 C 3,3 C 93 % 1005,6 hPa 0,0 l/m 0 min 0 min 0,0 UV-I 21 W/m 12,9 km/h (3 Bft)
15.01.2014 15:48 4,6 C 3,3 C 93 % 1005,6 hPa 0,0 l/m 0 min 0 min 0,0 UV-I 19 W/m 25,7 km/h (4 Bft)
15.01.2014 15:50 4,6 C 3,3 C 93 % 1005,5 hPa 0,0 l/m 0 min 0 min 0,0 UV-I 19 W/m 23,2 km/h (4 Bft)
15.01.2014 15:52 4,6 C 3,3 C 93 % 1005,6 hPa 0,0 l/m 0 min 0 min 0,0 UV-I 18 W/m 20,6 km/h (4 Bft)
15.01.2014 15:54 4,6 C 3,3 C 93 % 1005,6 hPa 0,0 l/m 0 min 0 min 0,0 UV-I 16 W/m 12,9 km/h (3 Bft)
15.01.2014 15:56 4,6 C 3,3 C 93 % 1005,6 hPa 0,0 l/m 0 min 0 min 0,0 UV-I 16 W/m 23,2 km/h (4 Bft)
15.01.2014 15:58 4,6 C 3,3 C 93 % 1005,6 hPa 0,0 l/m 0 min 0 min 0,0 UV-I 16 W/m 18,0 km/h (3 Bft)
15.01.2014 16:00 4,6 C 3,3 C 93 % 1005,6 hPa 0,0 l/m 0 min 0 min 0,0 UV-I 14 W/m 18,0 km/h (3 Bft)
15.01.2014 16:02 4,5 C 3,3 C 93 % 1005,6 hPa 0,0 l/m 0 min 0 min 0,0 UV-I 14 W/m 18,0 km/h (3 Bft)
15.01.2014 16:04 4,5 C 3,3 C 93 % 1005,5 hPa 0,0 l/m 0 min 0 min 0,0 UV-I 14 W/m 18,0 km/h (3 Bft)
15.01.2014 16:06 4,5 C 3,3 C 93 % 1005,5 hPa 0,0 l/m 0 min 0 min 0,0 UV-I 14 W/m 23,2 km/h (4 Bft)
15.01.2014 16:08 4,5 C 3,3 C 93 % 1005,5 hPa 0,0 l/m 0 min 2 min 0,0 UV-I 12 W/m 28,3 km/h (4 Bft)
15.01.2014 16:10 4,5 C 3,3 C 93 % 1005,4 hPa 0,0 l/m 0 min 2 min 0,0 UV-I 12 W/m 23,2 km/h (4 Bft)
15.01.2014 16:12 4,5 C 3,3 C 93 % 1005,4 hPa 0,0 l/m 0 min 0 min 0,0 UV-I 12 W/m 25,7 km/h (4 Bft)
15.01.2014 16:14 4,5 C 3,3 C 93 % 1005,3 hPa 0,0 l/m 0 min 0 min 0,0 UV-I 11 W/m 18,0 km/h (3 Bft)
15.01.2014 16:16 4,5 C 3,3 C 93 % 1005,2 hPa 0,0 l/m 0 min 0 min 0,0 UV-I 11 W/m 15,4 km/h (3 Bft)
15.01.2014 16:18 4,4 C 3,3 C 93 % 1005,3 hPa 0,0 l/m 0 min 2 min 0,0 UV-I 11 W/m 20,6 km/h (4 Bft)
15.01.2014 16:20 4,4 C 3,3 C 93 % 1005,3 hPa 0,0 l/m 0 min 0 min 0,0 UV-I 9 W/m 18,0 km/h (3 Bft)
15.01.2014 16:22 4,4 C 3,3 C 93 % 1005,3 hPa 0,0 l/m 0 min 0 min 0,0 UV-I 9 W/m 23,2 km/h (4 Bft)
15.01.2014 16:24 4,4 C 3,3 C 93 % 1005,4 hPa 0,0 l/m 0 min 0 min 0,0 UV-I 7 W/m 20,6 km/h (4 Bft)
15.01.2014 16:26 4,4 C 3,3 C 93 % 1005,2 hPa 0,0 l/m 0 min 0 min 0,0 UV-I 7 W/m 23,2 km/h (4 Bft)
15.01.2014 16:28 4,4 C 3,3 C 93 % 1005,2 hPa 0,0 l/m 0 min 0 min 0,0 UV-I 7 W/m 15,4 km/h (3 Bft)
15.01.2014 16:30 4,4 C 3,3 C 93 % 1005,2 hPa 0,0 l/m 0 min 0 min 0,0 UV-I 7 W/m 23,2 km/h (4 Bft)
15.01.2014 16:32 4,4 C 3,3 C 93 % 1005,2 hPa 0,0 l/m 0 min 0 min 0,0 UV-I 5 W/m 12,9 km/h (3 Bft)
15.01.2014 16:34 4,4 C 3,3 C 93 % 1005,2 hPa 0,0 l/m 0 min 0 min 0,0 UV-I 5 W/m 28,3 km/h (4 Bft)
15.01.2014 16:36 4,4 C 3,3 C 93 % 1005,2 hPa 0,0 l/m 0 min 0 min 0,0 UV-I 5 W/m 18,0 km/h (3 Bft)
15.01.2014 16:38 4,4 C 3,3 C 94 % 1005,2 hPa 0,0 l/m 0 min 0 min 0,0 UV-I 0 W/m 15,4 km/h (3 Bft)
15.01.2014 16:40 4,4 C 3,3 C 93 % 1005,3 hPa 0,0 l/m 0 min 0 min 0,0 UV-I 0 W/m 20,6 km/h (4 Bft)
15.01.2014 16:42 4,4 C 3,3 C 94 % 1005,2 hPa 0,0 l/m 0 min 0 min 0,0 UV-I 0 W/m 15,4 km/h (3 Bft)
15.01.2014 16:44 4,4 C 3,3 C 94 % 1005,2 hPa 0,0 l/m 0 min 0 min 0,0 UV-I 0 W/m 12,9 km/h (3 Bft)
15.01.2014 16:46 4,4 C 2,8 C 94 % 1005,3 hPa 0,0 l/m 0 min 0 min 0,0 UV-I 0 W/m 12,9 km/h (3 Bft)
15.01.2014 16:48 4,4 C 2,8 C 94 % 1005,2 hPa 0,0 l/m 0 min 0 min 0,0 UV-I 0 W/m 10,3 km/h (2 Bft)
15.01.2014 16:50 4,4 C 2,8 C 94 % 1005,2 hPa 0,0 l/m 0 min 0 min 0,0 UV-I 0 W/m 15,4 km/h (3 Bft)
15.01.2014 16:52 4,4 C 2,8 C 94 % 1005,3 hPa 0,0 l/m 0 min 0 min 0,0 UV-I 0 W/m 15,4 km/h (3 Bft)
15.01.2014 16:54 4,4 C 2,8 C 94 % 1005,2 hPa 0,0 l/m 0 min 0 min 0,0 UV-I 0 W/m 18,0 km/h (3 Bft)
15.01.2014 16:56 4,4 C 2,8 C 94 % 1005,2 hPa 0,0 l/m 0 min 0 min 0,0 UV-I 0 W/m 10,3 km/h (2 Bft)
15.01.2014 16:58 4,4 C 2,8 C 94 % 1005,2 hPa 0,0 l/m 0 min 0 min 0,0 UV-I 0 W/m 18,0 km/h (3 Bft)
15.01.2014 17:00 4,4 C 2,8 C 94 % 1005,2 hPa 0,0 l/m 0 min 0 min 0,0 UV-I 0 W/m 12,9 km/h (3 Bft)
15.01.2014 17:02 4,4 C 2,8 C 94 % 1005,2 hPa 0,0 l/m 0 min 0 min 0,0 UV-I 0 W/m 15,4 km/h (3 Bft)
15.01.2014 17:04 4,4 C 2,8 C 94 % 1005,1 hPa 0,0 l/m 0 min 2 min 0,0 UV-I 0 W/m 15,4 km/h (3 Bft)
15.01.2014 17:06 4,3 C 2,8 C 94 % 1005,1 hPa 0,0 l/m 0 min 2 min 0,0 UV-I 0 W/m 10,3 km/h (2 Bft)
15.01.2014 17:08 4,3 C 2,8 C 94 % 1005,1 hPa 0,0 l/m 0 min 2 min 0,0 UV-I 0 W/m 10,3 km/h (2 Bft)
15.01.2014 17:10 4,3 C 2,8 C 94 % 1005,2 hPa 0,0 l/m 0 min 2 min 0,0 UV-I 0 W/m 15,4 km/h (3 Bft)
15.01.2014 17:12 4,3 C 2,8 C 94 % 1005,1 hPa 0,0 l/m 0 min 2 min 0,0 UV-I 0 W/m 18,0 km/h (3 Bft)
15.01.2014 17:14 4,3 C 2,8 C 94 % 1005,1 hPa 0,0 l/m 0 min 2 min 0,0 UV-I 0 W/m 12,9 km/h (3 Bft)
15.01.2014 17:16 4,3 C 2,8 C 94 % 1005,2 hPa 0,0 l/m 0 min 2 min 0,0 UV-I 0 W/m 18,0 km/h (3 Bft)
15.01.2014 17:18 4,3 C 2,8 C 94 % 1005,1 hPa 0,0 l/m 0 min 2 min 0,0 UV-I 0 W/m 15,4 km/h (3 Bft)
15.01.2014 17:20 4,3 C 2,8 C 94 % 1005,1 hPa 0,0 l/m 0 min 0 min 0,0 UV-I 0 W/m 18,0 km/h (3 Bft)
15.01.2014 17:22 4,3 C 2,8 C 95 % 1005,1 hPa 0,0 l/m 0 min 0 min 0,0 UV-I 0 W/m 10,3 km/h (2 Bft)
15.01.2014 17:24 4,2 C 2,8 C 95 % 1005,1 hPa 0,0 l/m 0 min 2 min 0,0 UV-I 0 W/m 12,9 km/h (3 Bft)
15.01.2014 17:25 4,3 C 2,8 C 95 % 1005,1 hPa 0,0 l/m 0 min 1 min 0,0 UV-I 0 W/m 12,9 km/h (3 Bft)
15.01.2014 17:28 4,3 C 2,8 C 94 % 1005,1 hPa 0,0 l/m 0 min 2 min 0,0 UV-I 0 W/m 12,9 km/h (3 Bft)
15.01.2014 17:30 4,2 C 2,8 C 95 % 1005,1 hPa 0,2 l/m 0 min 2 min 0,0 UV-I 0 W/m 20,6 km/h (4 Bft)
15.01.2014 17:32 4,2 C 2,8 C 95 % 1005,1 hPa 0,0 l/m 0 min 2 min 0,0 UV-I 0 W/m 20,6 km/h (4 Bft)
15.01.2014 17:34 4,2 C 2,8 C 95 % 1005,1 hPa 0,0 l/m 0 min 2 min 0,0 UV-I 0 W/m 12,9 km/h (3 Bft)
15.01.2014 17:36 4,2 C 2,8 C 95 % 1005,0 hPa 0,0 l/m 0 min 2 min 0,0 UV-I 0 W/m 15,4 km/h (3 Bft)
15.01.2014 17:38 4,2 C 2,8 C 95 % 1005,1 hPa 0,0 l/m 0 min 2 min 0,0 UV-I 0 W/m 15,4 km/h (3 Bft)
15.01.2014 17:40 4,2 C 2,8 C 95 % 1005,0 hPa 0,0 l/m 0 min 0 min 0,0 UV-I 0 W/m 10,3 km/h (2 Bft)
15.01.2014 17:42 4,2 C 2,8 C 95 % 1004,9 hPa 0,0 l/m 0 min 0 min 0,0 UV-I 0 W/m 12,9 km/h (3 Bft)
15.01.2014 17:44 4,2 C 2,8 C 95 % 1004,9 hPa 0,0 l/m 0 min 0 min 0,0 UV-I 0 W/m 18,0 km/h (3 Bft)
15.01.2014 17:46 4,2 C 2,8 C 95 % 1004,9 hPa 0,0 l/m 0 min 2 min 0,0 UV-I 0 W/m 20,6 km/h (4 Bft)
15.01.2014 17:48 4,2 C 2,8 C 95 % 1004,9 hPa 0,0 l/m 0 min 0 min 0,0 UV-I 0 W/m 15,4 km/h (3 Bft)
15.01.2014 17:50 4,2 C 2,8 C 95 % 1004,9 hPa 0,0 l/m 0 min 0 min 0,0 UV-I 0 W/m 20,6 km/h (4 Bft)
15.01.2014 17:52 4,2 C 2,8 C 95 % 1004,9 hPa 0,0 l/m 0 min 0 min 0,0 UV-I 0 W/m 18,0 km/h (3 Bft)
15.01.2014 17:54 4,1 C 2,8 C 95 % 1004,8 hPa 0,0 l/m 0 min 0 min 0,0 UV-I 0 W/m 23,2 km/h (4 Bft)
15.01.2014 17:56 4,1 C 2,8 C 95 % 1004,8 hPa 0,0 l/m 0 min 0 min 0,0 UV-I 0 W/m 23,2 km/h (4 Bft)
15.01.2014 17:58 4,1 C 2,8 C 95 % 1004,8 hPa 0,0 l/m 0 min 0 min 0,0 UV-I 0 W/m 20,6 km/h (4 Bft)
15.01.2014 18:00 4,1 C 2,8 C 95 % 1004,8 hPa 0,0 l/m 0 min 0 min 0,0 UV-I 0 W/m 20,6 km/h (4 Bft)
15.01.2014 18:02 4,1 C 2,8 C 96 % 1004,9 hPa 0,0 l/m 0 min 0 min 0,0 UV-I 0 W/m 20,6 km/h (4 Bft)
15.01.2014 18:04 4,1 C 2,8 C 95 % 1004,9 hPa 0,0 l/m 0 min 0 min 0,0 UV-I 0 W/m 25,7 km/h (4 Bft)
15.01.2014 18:06 4,1 C 2,8 C 95 % 1004,8 hPa 0,0 l/m 0 min 0 min 0,0 UV-I 0 W/m 15,4 km/h (3 Bft)
15.01.2014 18:08 4,1 C 2,8 C 95 % 1004,9 hPa 0,0 l/m 0 min 0 min 0,0 UV-I 0 W/m 15,4 km/h (3 Bft)
15.01.2014 18:10 4,1 C 2,8 C 96 % 1004,9 hPa 0,0 l/m 0 min 0 min 0,0 UV-I 0 W/m 12,9 km/h (3 Bft)
15.01.2014 18:12 4,1 C 2,8 C 96 % 1004,9 hPa 0,0 l/m 0 min 0 min 0,0 UV-I 0 W/m 15,4 km/h (3 Bft)
15.01.2014 18:14 4,1 C 2,8 C 96 % 1004,9 hPa 0,0 l/m 0 min 0 min 0,0 UV-I 0 W/m 12,9 km/h (3 Bft)
15.01.2014 18:16 4,1 C 2,8 C 96 % 1005,0 hPa 0,0 l/m 0 min 0 min 0,0 UV-I 0 W/m 15,4 km/h (3 Bft)
15.01.2014 18:18 4,0 C 2,8 C 96 % 1004,9 hPa 0,0 l/m 0 min 0 min 0,0 UV-I 0 W/m 10,3 km/h (2 Bft)
15.01.2014 18:20 4,1 C 2,8 C 96 % 1005,0 hPa 0,0 l/m 0 min 0 min 0,0 UV-I 0 W/m 15,4 km/h (3 Bft)
15.01.2014 18:22 4,1 C 2,8 C 96 % 1005,0 hPa 0,0 l/m 0 min 2 min 0,0 UV-I 0 W/m 20,6 km/h (4 Bft)
15.01.2014 18:24 4,1 C 2,8 C 96 % 1004,9 hPa 0,0 l/m 0 min 2 min 0,0 UV-I 0 W/m 15,4 km/h (3 Bft)
15.01.2014 18:26 4,0 C 2,8 C 96 % 1004,9 hPa 0,0 l/m 0 min 2 min 0,0 UV-I 0 W/m 10,3 km/h (2 Bft)
15.01.2014 18:28 4,1 C 2,8 C 96 % 1004,9 hPa 0,2 l/m 0 min 2 min 0,0 UV-I 0 W/m 15,4 km/h (3 Bft)
15.01.2014 18:30 4,1 C 2,8 C 96 % 1004,9 hPa 0,0 l/m 0 min 2 min 0,0 UV-I 0 W/m 12,9 km/h (3 Bft)
15.01.2014 18:32 4,1 C 2,8 C 96 % 1004,8 hPa 0,0 l/m 0 min 2 min 0,0 UV-I 0 W/m 12,9 km/h (3 Bft)
15.01.2014 18:34 4,1 C 2,8 C 96 % 1004,9 hPa 0,0 l/m 0 min 2 min 0,0 UV-I 0 W/m 7,7 km/h (2 Bft)
15.01.2014 18:36 4,1 C 2,8 C 96 % 1004,8 hPa 0,0 l/m 0 min 2 min 0,0 UV-I 0 W/m 12,9 km/h (3 Bft)
15.01.2014 18:38 4,1 C 2,8 C 96 % 1004,8 hPa 0,0 l/m 0 min 2 min 0,0 UV-I 0 W/m 12,9 km/h (3 Bft)
15.01.2014 18:40 4,1 C 2,8 C 96 % 1004,8 hPa 0,0 l/m 0 min 0 min 0,0 UV-I 0 W/m 15,4 km/h (3 Bft)
15.01.2014 18:42 4,1 C 2,8 C 96 % 1004,8 hPa 0,0 l/m 0 min 0 min 0,0 UV-I 0 W/m 18,0 km/h (3 Bft)
15.01.2014 18:44 4,0 C 2,8 C 96 % 1004,8 hPa 0,0 l/m 0 min 0 min 0,0 UV-I 0 W/m 10,3 km/h (2 Bft)
15.01.2014 18:46 4,1 C 2,8 C 96 % 1004,8 hPa 0,0 l/m 0 min 0 min 0,0 UV-I 0 W/m 12,9 km/h (3 Bft)
15.01.2014 18:48 4,1 C 2,8 C 96 % 1004,8 hPa 0,0 l/m 0 min 0 min 0,0 UV-I 0 W/m 15,4 km/h (3 Bft)
15.01.2014 18:50 4,1 C 2,8 C 96 % 1004,8 hPa 0,0 l/m 0 min 0 min 0,0 UV-I 0 W/m 18,0 km/h (3 Bft)
15.01.2014 18:52 4,1 C 2,8 C 96 % 1004,7 hPa 0,0 l/m 0 min 0 min 0,0 UV-I 0 W/m 15,4 km/h (3 Bft)
15.01.2014 18:54 4,1 C 2,8 C 96 % 1004,8 hPa 0,0 l/m 0 min 0 min 0,0 UV-I 0 W/m 10,3 km/h (2 Bft)
15.01.2014 18:56 4,1 C 2,8 C 96 % 1004,8 hPa 0,0 l/m 0 min 0 min 0,0 UV-I 0 W/m 7,7 km/h (2 Bft)
15.01.2014 18:58 4,1 C 2,8 C 96 % 1004,8 hPa 0,0 l/m 0 min 0 min 0,0 UV-I 0 W/m 12,9 km/h (3 Bft)
15.01.2014 19:00 4,1 C 2,8 C 96 % 1004,7 hPa 0,0 l/m 0 min 2 min 0,0 UV-I 0 W/m 25,7 km/h (4 Bft)
15.01.2014 19:02 4,1 C 2,8 C 96 % 1004,8 hPa 0,0 l/m 0 min 0 min 0,0 UV-I 0 W/m 15,4 km/h (3 Bft)
15.01.2014 19:04 4,1 C 2,8 C 96 % 1004,8 hPa 0,0 l/m 0 min 0 min 0,0 UV-I 0 W/m 18,0 km/h (3 Bft)
15.01.2014 19:06 4,1 C 2,8 C 96 % 1004,8 hPa 0,0 l/m 0 min 0 min 0,0 UV-I 0 W/m 12,9 km/h (3 Bft)
15.01.2014 19:08 4,1 C 2,8 C 96 % 1004,8 hPa 0,0 l/m 0 min 0 min 0,0 UV-I 0 W/m 15,4 km/h (3 Bft)
15.01.2014 19:10 4,1 C 2,8 C 96 % 1004,8 hPa 0,0 l/m 0 min 0 min 0,0 UV-I 0 W/m 20,6 km/h (4 Bft)
15.01.2014 19:12 4,1 C 2,8 C 97 % 1004,8 hPa 0,0 l/m 0 min 0 min 0,0 UV-I 0 W/m 20,6 km/h (4 Bft)
15.01.2014 19:14 4,1 C 2,8 C 97 % 1004,8 hPa 0,0 l/m 0 min 0 min 0,0 UV-I 0 W/m 12,9 km/h (3 Bft)
15.01.2014 19:16 4,1 C 2,8 C 97 % 1004,8 hPa 0,0 l/m 0 min 0 min 0,0 UV-I 0 W/m 18,0 km/h (3 Bft)
15.01.2014 19:18 4,1 C 2,8 C 97 % 1004,7 hPa 0,0 l/m 0 min 0 min 0,0 UV-I 0 W/m 15,4 km/h (3 Bft)
15.01.2014 19:20 4,1 C 2,8 C 97 % 1004,8 hPa 0,0 l/m 0 min 0 min 0,0 UV-I 0 W/m 12,9 km/h (3 Bft)
15.01.2014 19:22 4,1 C 2,8 C 97 % 1004,8 hPa 0,0 l/m 0 min 0 min 0,0 UV-I 0 W/m 18,0 km/h (3 Bft)
15.01.2014 19:24 4,1 C 2,8 C 96 % 1004,7 hPa 0,0 l/m 0 min 0 min 0,0 UV-I 0 W/m 18,0 km/h (3 Bft)
15.01.2014 19:26 4,1 C 2,8 C 96 % 1004,7 hPa 0,0 l/m 0 min 2 min 0,0 UV-I 0 W/m 15,4 km/h (3 Bft)
15.01.2014 19:28 4,1 C 2,8 C 97 % 1004,7 hPa 0,0 l/m 0 min 2 min 0,0 UV-I 0 W/m 12,9 km/h (3 Bft)
15.01.2014 19:30 4,1 C 2,8 C 97 % 1004,7 hPa 0,0 l/m 0 min 0 min 0,0 UV-I 0 W/m 15,4 km/h (3 Bft)
15.01.2014 19:32 4,1 C 2,8 C 97 % 1004,7 hPa 0,0 l/m 0 min 0 min 0,0 UV-I 0 W/m 12,9 km/h (3 Bft)
15.01.2014 19:34 4,1 C 2,8 C 97 % 1004,7 hPa 0,0 l/m 0 min 0 min 0,0 UV-I 0 W/m 25,7 km/h (4 Bft)
15.01.2014 19:36 4,1 C 2,8 C 97 % 1004,7 hPa 0,0 l/m 0 min 0 min 0,0 UV-I 0 W/m 15,4 km/h (3 Bft)
15.01.2014 19:38 4,1 C 2,8 C 97 % 1004,7 hPa 0,0 l/m 0 min 2 min 0,0 UV-I 0 W/m 15,4 km/h (3 Bft)
15.01.2014 19:40 4,1 C 2,8 C 97 % 1004,6 hPa 0,0 l/m 0 min 2 min 0,0 UV-I 0 W/m 15,4 km/h (3 Bft)
15.01.2014 19:42 4,1 C 2,8 C 97 % 1004,6 hPa 0,0 l/m 0 min 2 min 0,0 UV-I 0 W/m 5,1 km/h (1 Bft)
15.01.2014 19:44 4,1 C 2,8 C 97 % 1004,7 hPa 0,0 l/m 0 min 0 min 0,0 UV-I 0 W/m 12,9 km/h (3 Bft)
15.01.2014 19:46 4,1 C 2,8 C 97 % 1004,7 hPa 0,0 l/m 0 min 0 min 0,0 UV-I 0 W/m 18,0 km/h (3 Bft)
15.01.2014 19:48 4,1 C 2,8 C 97 % 1004,6 hPa 0,0 l/m 0 min 0 min 0,0 UV-I 0 W/m 2,6 km/h (1 Bft)
15.01.2014 19:50 4,1 C 2,8 C 97 % 1004,6 hPa 0,0 l/m 0 min 0 min 0,0 UV-I 0 W/m 12,9 km/h (3 Bft)
15.01.2014 19:52 4,1 C 2,8 C 97 % 1004,6 hPa 0,0 l/m 0 min 2 min 0,0 UV-I 0 W/m 15,4 km/h (3 Bft)
15.01.2014 19:54 4,1 C 2,8 C 97 % 1004,6 hPa 0,0 l/m 0 min 2 min 0,0 UV-I 0 W/m 12,9 km/h (3 Bft)
15.01.2014 19:55 4,1 C 2,8 C 97 % 1004,5 hPa 0,0 l/m 0 min 1 min 0,0 UV-I 0 W/m 15,4 km/h (3 Bft)
15.01.2014 19:58 4,1 C 2,8 C 97 % 1004,5 hPa 0,0 l/m 0 min 2 min 0,0 UV-I 0 W/m 10,3 km/h (2 Bft)
15.01.2014 20:00 4,1 C 2,8 C 97 % 1004,5 hPa 0,0 l/m 0 min 2 min 0,0 UV-I 0 W/m 12,9 km/h (3 Bft)
15.01.2014 20:02 4,1 C 3,3 C 97 % 1004,5 hPa 0,0 l/m 0 min 2 min 0,0 UV-I 0 W/m 7,7 km/h (2 Bft)
15.01.2014 20:04 4,2 C 3,3 C 97 % 1004,5 hPa 0,0 l/m 0 min 2 min 0,0 UV-I 0 W/m 15,4 km/h (3 Bft)
15.01.2014 20:06 4,2 C 2,8 C 97 % 1004,5 hPa 0,0 l/m 0 min 2 min 0,0 UV-I 0 W/m 12,9 km/h (3 Bft)
15.01.2014 20:08 4,2 C 3,3 C 97 % 1004,5 hPa 0,0 l/m 0 min 2 min 0,0 UV-I 0 W/m 10,3 km/h (2 Bft)
15.01.2014 20:10 4,2 C 3,3 C 97 % 1004,5 hPa 0,0 l/m 0 min 2 min 0,0 UV-I 0 W/m 12,9 km/h (3 Bft)
15.01.2014 20:12 4,2 C 3,3 C 97 % 1004,4 hPa 0,0 l/m 0 min 2 min 0,0 UV-I 0 W/m 10,3 km/h (2 Bft)
15.01.2014 20:14 4,2 C 2,8 C 100 % 1004,5 hPa 0,0 l/m 0 min 0 min 0,0 UV-I 0 W/m 7,7 km/h (2 Bft)
15.01.2014 20:16 4,2 C 3,3 C 100 % 1004,5 hPa 0,0 l/m 0 min 0 min 0,0 UV-I 0 W/m 12,9 km/h (3 Bft)
15.01.2014 20:18 4,2 C 3,3 C 97 % 1004,4 hPa 0,0 l/m 0 min 0 min 0,0 UV-I 0 W/m 7,7 km/h (2 Bft)
15.01.2014 20:20 4,2 C 3,3 C 97 % 1004,4 hPa 0,0 l/m 0 min 0 min 0,0 UV-I 0 W/m 10,3 km/h (2 Bft)
15.01.2014 20:22 4,2 C 3,3 C 97 % 1004,5 hPa 0,2 l/m 0 min 0 min 0,0 UV-I 0 W/m 12,9 km/h (3 Bft)
15.01.2014 20:24 4,2 C 3,3 C 97 % 1004,5 hPa 0,0 l/m 0 min 0 min 0,0 UV-I 0 W/m 12,9 km/h (3 Bft)
15.01.2014 20:26 4,2 C 3,3 C 97 % 1004,5 hPa 0,0 l/m 0 min 0 min 0,0 UV-I 0 W/m 15,4 km/h (3 Bft)
15.01.2014 20:28 4,2 C 3,3 C 97 % 1004,4 hPa 0,0 l/m 0 min 0 min 0,0 UV-I 0 W/m 5,1 km/h (1 Bft)
15.01.2014 20:30 4,2 C 3,3 C 97 % 1004,4 hPa 0,0 l/m 0 min 0 min 0,0 UV-I 0 W/m 10,3 km/h (2 Bft)
15.01.2014 20:32 4,2 C 3,3 C 97 % 1004,4 hPa 0,0 l/m 0 min 2 min 0,0 UV-I 0 W/m 7,7 km/h (2 Bft)
15.01.2014 20:34 4,2 C 3,3 C 97 % 1004,4 hPa 0,0 l/m 0 min 0 min 0,0 UV-I 0 W/m 18,0 km/h (3 Bft)
15.01.2014 20:36 4,2 C 3,3 C 97 % 1004,4 hPa 0,0 l/m 0 min 2 min 0,0 UV-I 0 W/m 10,3 km/h (2 Bft)
15.01.2014 20:38 4,2 C 3,3 C 97 % 1004,4 hPa 0,0 l/m 0 min 2 min 0,0 UV-I 0 W/m 10,3 km/h (2 Bft)
15.01.2014 20:40 4,2 C 3,3 C 97 % 1004,4 hPa 0,0 l/m 0 min 0 min 0,0 UV-I 0 W/m 15,4 km/h (3 Bft)
15.01.2014 20:42 4,2 C 3,3 C 97 % 1004,4 hPa 0,0 l/m 0 min 2 min 0,0 UV-I 0 W/m 15,4 km/h (3 Bft)
15.01.2014 20:44 4,2 C 3,3 C 97 % 1004,4 hPa 0,0 l/m 0 min 0 min 0,0 UV-I 0 W/m 20,6 km/h (4 Bft)
15.01.2014 20:46 4,2 C 3,3 C 97 % 1004,4 hPa 0,0 l/m 0 min 2 min 0,0 UV-I 0 W/m 12,9 km/h (3 Bft)
15.01.2014 20:48 4,2 C 3,3 C 97 % 1004,3 hPa 0,0 l/m 0 min 0 min 0,0 UV-I 0 W/m 12,9 km/h (3 Bft)
15.01.2014 20:50 4,2 C 3,3 C 97 % 1004,4 hPa 0,0 l/m 0 min 2 min 0,0 UV-I 0 W/m 12,9 km/h (3 Bft)
15.01.2014 20:52 4,2 C 3,3 C 97 % 1004,3 hPa 0,0 l/m 0 min 2 min 0,0 UV-I 0 W/m 12,9 km/h (3 Bft)
15.01.2014 20:54 4,3 C 3,3 C 97 % 1004,3 hPa 0,0 l/m 0 min 0 min 0,0 UV-I 0 W/m 12,9 km/h (3 Bft)
15.01.2014 20:56 4,3 C 3,3 C 97 % 1004,4 hPa 0,0 l/m 0 min 2 min 0,0 UV-I 0 W/m 12,9 km/h (3 Bft)
15.01.2014 20:58 4,3 C 3,3 C 97 % 1004,4 hPa 0,0 l/m 0 min 2 min 0,0 UV-I 0 W/m 7,7 km/h (2 Bft)
15.01.2014 21:00 4,3 C 3,3 C 97 % 1004,4 hPa 0,0 l/m 0 min 0 min 0,0 UV-I 0 W/m 0,0 km/h (0 Bft)
15.01.2014 21:02 4,3 C 3,3 C 97 % 1004,3 hPa 0,0 l/m 0 min 2 min 0,0 UV-I 0 W/m 7,7 km/h (2 Bft)
15.01.2014 21:04 4,3 C 3,3 C 97 % 1004,4 hPa 0,0 l/m 0 min 2 min 0,0 UV-I 0 W/m 15,4 km/h (3 Bft)
15.01.2014 21:06 4,3 C 3,3 C 97 % 1004,3 hPa 0,0 l/m 0 min 2 min 0,0 UV-I 0 W/m 10,3 km/h (2 Bft)
15.01.2014 21:08 4,3 C 3,3 C 97 % 1004,4 hPa 0,0 l/m 0 min 2 min 0,0 UV-I 0 W/m 7,7 km/h (2 Bft)
15.01.2014 21:10 4,3 C 3,3 C 97 % 1004,3 hPa 0,0 l/m 0 min 2 min 0,0 UV-I 0 W/m 12,9 km/h (3 Bft)
15.01.2014 21:12 4,3 C 3,3 C 97 % 1004,3 hPa 0,0 l/m 0 min 2 min 0,0 UV-I 0 W/m 10,3 km/h (2 Bft)
15.01.2014 21:14 4,3 C 3,3 C 97 % 1004,4 hPa 0,0 l/m 0 min 2 min 0,0 UV-I 0 W/m 7,7 km/h (2 Bft)
15.01.2014 21:16 4,3 C 3,3 C 97 % 1004,3 hPa 0,0 l/m 0 min 2 min 0,0 UV-I 0 W/m 10,3 km/h (2 Bft)
15.01.2014 21:18 4,3 C 3,3 C 97 % 1004,3 hPa 0,0 l/m 0 min 2 min 0,0 UV-I 0 W/m 0,0 km/h (0 Bft)
15.01.2014 21:20 4,4 C 3,3 C 97 % 1004,2 hPa 0,0 l/m 0 min 2 min 0,0 UV-I 0 W/m 7,7 km/h (2 Bft)
15.01.2014 21:22 4,4 C 3,3 C 97 % 1004,3 hPa 0,0 l/m 0 min 2 min 0,0 UV-I 0 W/m 12,9 km/h (3 Bft)
15.01.2014 21:24 4,4 C 3,3 C 97 % 1004,2 hPa 0,0 l/m 0 min 2 min 0,0 UV-I 0 W/m 10,3 km/h (2 Bft)
15.01.2014 21:26 4,4 C 3,3 C 97 % 1004,2 hPa 0,0 l/m 0 min 2 min 0,0 UV-I 0 W/m 7,7 km/h (2 Bft)
15.01.2014 21:28 4,4 C 3,3 C 97 % 1004,2 hPa 0,2 l/m 0 min 2 min 0,0 UV-I 0 W/m 5,1 km/h (1 Bft)
15.01.2014 21:30 4,4 C 3,3 C 97 % 1004,2 hPa 0,0 l/m 0 min 2 min 0,0 UV-I 0 W/m 18,0 km/h (3 Bft)
15.01.2014 21:32 4,4 C 3,3 C 97 % 1004,3 hPa 0,0 l/m 0 min 2 min 0,0 UV-I 0 W/m 12,9 km/h (3 Bft)
15.01.2014 21:34 4,4 C 3,3 C 97 % 1004,2 hPa 0,0 l/m 0 min 2 min 0,0 UV-I 0 W/m 10,3 km/h (2 Bft)
15.01.2014 21:36 4,4 C 3,3 C 97 % 1004,2 hPa 0,0 l/m 0 min 2 min 0,0 UV-I 0 W/m 7,7 km/h (2 Bft)
15.01.2014 21:38 4,4 C 3,3 C 97 % 1004,2 hPa 0,0 l/m 0 min 2 min 0,0 UV-I 0 W/m 10,3 km/h (2 Bft)
15.01.2014 21:40 4,4 C 3,3 C 97 % 1004,1 hPa 0,0 l/m 0 min 2 min 0,0 UV-I 0 W/m 15,4 km/h (3 Bft)
15.01.2014 21:42 4,4 C 3,3 C 97 % 1004,1 hPa 0,0 l/m 0 min 2 min 0,0 UV-I 0 W/m 18,0 km/h (3 Bft)
15.01.2014 21:44 4,4 C 3,3 C 97 % 1004,2 hPa 0,0 l/m 0 min 2 min 0,0 UV-I 0 W/m 20,6 km/h (4 Bft)
15.01.2014 21:46 4,4 C 3,3 C 97 % 1004,1 hPa 0,0 l/m 0 min 2 min 0,0 UV-I 0 W/m 15,4 km/h (3 Bft)
15.01.2014 21:48 4,4 C 3,3 C 97 % 1004,2 hPa 0,0 l/m 0 min 2 min 0,0 UV-I 0 W/m 20,6 km/h (4 Bft)
15.01.2014 21:50 4,4 C 3,3 C 97 % 1004,2 hPa 0,0 l/m 0 min 2 min 0,0 UV-I 0 W/m 15,4 km/h (3 Bft)
15.01.2014 21:52 4,4 C 3,3 C 97 % 1004,2 hPa 0,0 l/m 0 min 2 min 0,0 UV-I 0 W/m 10,3 km/h (2 Bft)
15.01.2014 21:54 4,4 C 3,3 C 97 % 1004,1 hPa 0,0 l/m 0 min 2 min 0,0 UV-I 0 W/m 10,3 km/h (2 Bft)
15.01.2014 21:56 4,4 C 3,3 C 97 % 1004,1 hPa 0,2 l/m 0 min 2 min 0,0 UV-I 0 W/m 25,7 km/h (4 Bft)
15.01.2014 21:58 4,4 C 3,3 C 97 % 1004,1 hPa 0,0 l/m 0 min 2 min 0,0 UV-I 0 W/m 10,3 km/h (2 Bft)
15.01.2014 22:00 4,5 C 3,3 C 97 % 1004,1 hPa 0,0 l/m 0 min 2 min 0,0 UV-I 0 W/m 23,2 km/h (4 Bft)
15.01.2014 22:02 4,5 C 3,3 C 97 % 1004,1 hPa 0,0 l/m 0 min 2 min 0,0 UV-I 0 W/m 18,0 km/h (3 Bft)
15.01.2014 22:04 4,5 C 3,3 C 97 % 1004,1 hPa 0,0 l/m 0 min 2 min 0,0 UV-I 0 W/m 15,4 km/h (3 Bft)
15.01.2014 22:06 4,5 C 3,3 C 97 % 1004,1 hPa 0,2 l/m 0 min 2 min 0,0 UV-I 0 W/m 10,3 km/h (2 Bft)
15.01.2014 22:08 4,5 C 3,3 C 97 % 1004,1 hPa 0,0 l/m 0 min 2 min 0,0 UV-I 0 W/m 12,9 km/h (3 Bft)
15.01.2014 22:10 4,5 C 3,3 C 97 % 1004,1 hPa 0,0 l/m 0 min 2 min 0,0 UV-I 0 W/m 23,2 km/h (4 Bft)
15.01.2014 22:12 4,5 C 3,3 C 97 % 1004,1 hPa 0,0 l/m 0 min 2 min 0,0 UV-I 0 W/m 18,0 km/h (3 Bft)
15.01.2014 22:14 4,5 C 3,3 C 97 % 1004,1 hPa 0,0 l/m 0 min 2 min 0,0 UV-I 0 W/m 15,4 km/h (3 Bft)
15.01.2014 22:16 4,5 C 3,3 C 97 % 1004,0 hPa 0,0 l/m 0 min 2 min 0,0 UV-I 0 W/m 15,4 km/h (3 Bft)
15.01.2014 22:18 4,5 C 3,3 C 97 % 1004,0 hPa 0,0 l/m 0 min 2 min 0,0 UV-I 0 W/m 18,0 km/h (3 Bft)
15.01.2014 22:20 4,5 C 3,3 C 97 % 1004,0 hPa 0,0 l/m 0 min 2 min 0,0 UV-I 0 W/m 20,6 km/h (4 Bft)
15.01.2014 22:22 4,5 C 3,3 C 97 % 1004,0 hPa 0,0 l/m 0 min 2 min 0,0 UV-I 0 W/m 20,6 km/h (4 Bft)
15.01.2014 22:24 4,5 C 3,3 C 97 % 1004,0 hPa 0,0 l/m 0 min 2 min 0,0 UV-I 0 W/m 18,0 km/h (3 Bft)
15.01.2014 22:26 4,5 C 3,3 C 97 % 1004,0 hPa 0,2 l/m 0 min 2 min 0,0 UV-I 0 W/m 23,2 km/h (4 Bft)
15.01.2014 22:28 4,5 C 3,3 C 97 % 1003,9 hPa 0,0 l/m 0 min 2 min 0,0 UV-I 0 W/m 25,7 km/h (4 Bft)
15.01.2014 22:30 4,5 C 3,3 C 97 % 1003,9 hPa 0,0 l/m 0 min 2 min 0,0 UV-I 0 W/m 18,0 km/h (3 Bft)
15.01.2014 22:32 4,5 C 3,3 C 97 % 1003,9 hPa 0,0 l/m 0 min 2 min 0,0 UV-I 0 W/m 23,2 km/h (4 Bft)
15.01.2014 22:34 4,5 C 3,3 C 97 % 1003,9 hPa 0,0 l/m 0 min 2 min 0,0 UV-I 0 W/m 23,2 km/h (4 Bft)
15.01.2014 22:36 4,5 C 3,3 C 97 % 1003,8 hPa 0,0 l/m 0 min 2 min 0,0 UV-I 0 W/m 12,9 km/h (3 Bft)
15.01.2014 22:38 4,5 C 3,3 C 97 % 1003,7 hPa 0,0 l/m 0 min 2 min 0,0 UV-I 0 W/m 20,6 km/h (4 Bft)
15.01.2014 22:40 4,5 C 3,3 C 97 % 1003,7 hPa 0,0 l/m 0 min 2 min 0,0 UV-I 0 W/m 20,6 km/h (4 Bft)
15.01.2014 22:42 4,5 C 3,3 C 97 % 1003,6 hPa 0,0 l/m 0 min 2 min 0,0 UV-I 0 W/m 25,7 km/h (4 Bft)
15.01.2014 22:44 4,5 C 3,3 C 97 % 1003,6 hPa 0,0 l/m 0 min 2 min 0,0 UV-I 0 W/m 20,6 km/h (4 Bft)
15.01.2014 22:46 4,5 C 3,3 C 97 % 1003,6 hPa 0,0 l/m 0 min 0 min 0,0 UV-I 0 W/m 7,7 km/h (2 Bft)
15.01.2014 22:48 4,5 C 3,3 C 97 % 1003,7 hPa 0,0 l/m 0 min 0 min 0,0 UV-I 0 W/m 15,4 km/h (3 Bft)
15.01.2014 22:50 4,5 C 3,3 C 97 % 1003,7 hPa 0,0 l/m 0 min 0 min 0,0 UV-I 0 W/m 12,9 km/h (3 Bft)
15.01.2014 22:52 4,5 C 3,3 C 97 % 1003,7 hPa 0,0 l/m 0 min 0 min 0,0 UV-I 0 W/m 18,0 km/h (3 Bft)
15.01.2014 22:54 4,5 C 3,3 C 97 % 1003,7 hPa 0,0 l/m 0 min 0 min 0,0 UV-I 0 W/m 20,6 km/h (4 Bft)
15.01.2014 22:56 4,5 C 3,3 C 97 % 1003,7 hPa 0,0 l/m 0 min 2 min 0,0 UV-I 0 W/m 18,0 km/h (3 Bft)
15.01.2014 22:58 4,5 C 3,3 C 97 % 1003,7 hPa 0,0 l/m 0 min 0 min 0,0 UV-I 0 W/m 20,6 km/h (4 Bft)
15.01.2014 23:00 4,5 C 3,3 C 97 % 1003,7 hPa 0,0 l/m 0 min 0 min 0,0 UV-I 0 W/m 20,6 km/h (4 Bft)
15.01.2014 23:02 4,5 C 3,3 C 97 % 1003,6 hPa 0,0 l/m 0 min 0 min 0,0 UV-I 0 W/m 18,0 km/h (3 Bft)
15.01.2014 23:04 4,5 C 3,3 C 97 % 1003,7 hPa 0,0 l/m 0 min 0 min 0,0 UV-I 0 W/m 15,4 km/h (3 Bft)
15.01.2014 23:06 4,5 C 3,3 C 97 % 1003,6 hPa 0,0 l/m 0 min 0 min 0,0 UV-I 0 W/m 10,3 km/h (2 Bft)
15.01.2014 23:08 4,5 C 3,3 C 97 % 1003,6 hPa 0,0 l/m 0 min 0 min 0,0 UV-I 0 W/m 12,9 km/h (3 Bft)
15.01.2014 23:10 4,5 C 3,3 C 97 % 1003,6 hPa 0,0 l/m 0 min 0 min 0,0 UV-I 0 W/m 20,6 km/h (4 Bft)
15.01.2014 23:12 4,5 C 3,3 C 97 % 1003,5 hPa 0,0 l/m 0 min 0 min 0,0 UV-I 0 W/m 25,7 km/h (4 Bft)
15.01.2014 23:14 4,5 C 3,3 C 97 % 1003,6 hPa 0,0 l/m 0 min 0 min 0,0 UV-I 0 W/m 20,6 km/h (4 Bft)
15.01.2014 23:16 4,5 C 3,3 C 97 % 1003,6 hPa 0,0 l/m 0 min 0 min 0,0 UV-I 0 W/m 15,4 km/h (3 Bft)
15.01.2014 23:18 4,5 C 3,3 C 97 % 1003,5 hPa 0,0 l/m 0 min 2 min 0,0 UV-I 0 W/m 20,6 km/h (4 Bft)
15.01.2014 23:20 4,5 C 3,3 C 97 % 1003,5 hPa 0,0 l/m 0 min 0 min 0,0 UV-I 0 W/m 12,9 km/h (3 Bft)
15.01.2014 23:22 4,5 C 3,3 C 97 % 1003,5 hPa 0,0 l/m 0 min 0 min 0,0 UV-I 0 W/m 20,6 km/h (4 Bft)
15.01.2014 23:24 4,6 C 3,3 C 97 % 1003,5 hPa 0,0 l/m 0 min 0 min 0,0 UV-I 0 W/m 10,3 km/h (2 Bft)
15.01.2014 23:26 4,5 C 3,3 C 97 % 1003,4 hPa 0,0 l/m 0 min 0 min 0,0 UV-I 0 W/m 10,3 km/h (2 Bft)
15.01.2014 23:28 4,5 C 3,3 C 97 % 1003,5 hPa 0,0 l/m 0 min 0 min 0,0 UV-I 0 W/m 12,9 km/h (3 Bft)
15.01.2014 23:30 4,5 C 3,3 C 97 % 1003,4 hPa 0,0 l/m 0 min 0 min 0,0 UV-I 0 W/m 20,6 km/h (4 Bft)
15.01.2014 23:32 4,6 C 3,3 C 97 % 1003,3 hPa 0,0 l/m 0 min 0 min 0,0 UV-I 0 W/m 10,3 km/h (2 Bft)
15.01.2014 23:34 4,6 C 3,3 C 97 % 1003,4 hPa 0,0 l/m 0 min 0 min 0,0 UV-I 0 W/m 15,4 km/h (3 Bft)
15.01.2014 23:36 4,6 C 3,3 C 97 % 1003,3 hPa 0,0 l/m 0 min 0 min 0,0 UV-I 0 W/m 10,3 km/h (2 Bft)
15.01.2014 23:38 4,6 C 3,3 C 97 % 1003,3 hPa 0,0 l/m 0 min 0 min 0,0 UV-I 0 W/m 20,6 km/h (4 Bft)
15.01.2014 23:40 4,6 C 3,3 C 97 % 1003,2 hPa 0,0 l/m 0 min 0 min 0,0 UV-I 0 W/m 12,9 km/h (3 Bft)
15.01.2014 23:42 4,6 C 3,3 C 97 % 1003,2 hPa 0,0 l/m 0 min 0 min 0,0 UV-I 0 W/m 18,0 km/h (3 Bft)
15.01.2014 23:44 4,6 C 3,3 C 97 % 1003,2 hPa 0,0 l/m 0 min 0 min 0,0 UV-I 0 W/m 18,0 km/h (3 Bft)
15.01.2014 23:46 4,6 C 3,3 C 97 % 1003,2 hPa 0,0 l/m 0 min 0 min 0,0 UV-I 0 W/m 25,7 km/h (4 Bft)
15.01.2014 23:48 4,6 C 3,3 C 97 % 1003,1 hPa 0,0 l/m 0 min 0 min 0,0 UV-I 0 W/m 10,3 km/h (2 Bft)
15.01.2014 23:50 4,6 C 3,3 C 97 % 1003,1 hPa 0,0 l/m 0 min 0 min 0,0 UV-I 0 W/m 12,9 km/h (3 Bft)
15.01.2014 23:52 4,6 C 3,3 C 97 % 1003,1 hPa 0,0 l/m 0 min 0 min 0,0 UV-I 0 W/m 10,3 km/h (2 Bft)
15.01.2014 23:54 4,6 C 3,3 C 97 % 1003,1 hPa 0,0 l/m 0 min 0 min 0,0 UV-I 0 W/m 20,6 km/h (4 Bft)
15.01.2014 23:56 4,6 C 3,3 C 97 % 1003,0 hPa 0,0 l/m 0 min 0 min 0,0 UV-I 0 W/m 20,6 km/h (4 Bft)
15.01.2014 23:58 4,6 C 3,3 C 97 % 1003,0 hPa 0,0 l/m 0 min 0 min 0,0 UV-I 0 W/m 15,4 km/h (3 Bft)
_ Min-Zeit 07:58 06:28 10:44 23:56 - - - - - 00:04
Minimum _ 1,6 C 0,0 C 88 % 1003,0 hPa - - - - - 0,0 km/h (0 Bft)
_ Max-Zeit 00:00 00:00 20:14 03:26 14:46 08:46 00:26 00:00 12:04 12:10
Maximum _ 4,9 C 3,9 C 100 % 1009,8 hPa 0,2 l/m 2 min 2 min 0,0 UV-I 118 W/m 30,9 km/h
O-SO (5 Bft)
Durchschnitt _ 3,9 C 2,6 C 93 % 1007,0 hPa #1,6 l/m #6 min. #6:16 h 0,0 UV-I 52 W/m 11,2 km/h (2 Bft)
© 2014 W. Hausmann